GFSMA_sfc_rhum_057.txt.gz
RH
93 94 93 83 84 83 78 75 74 63 65 62 58 57 57 57 58 58 64 74 74 63 60 61 59 57 56 55 58 60 62 63 64 64 67 75 79 82 86 87 88 88 87
95 94 94 92 90 82 70 71 68 72 69 64 57 54 51 52 44 45 48 59 77 72 63 56 52 49 51 51 51 54 58 59 62 64 71 73 74 75 81 83 85 87 88
86 84 87 80 75 70 70 72 69 67 65 55 55 51 53 49 47 46 46 51 86 77 67 52 46 45 49 48 49 54 58 58 57 60 59 64 66 70 76 74 78 82 83
80 82 76 76 74 74 76 75 73 68 65 63 59 54 58 52 49 50 44 47 61 71 71 62 50 47 46 48 45 51 52 56 55 55 58 58 56 60 66 70 71 73 78
73 78 78 72 75 77 75 68 72 70 69 65 49 52 59 58 58 44 45 46 55 69 68 66 63 59 47 43 43 48 50 53 52 53 56 56 56 57 59 58 60 62 65
69 75 74 69 70 71 73 74 68 67 68 69 46 50 56 58 58 59 56 43 44 41 53 47 53 53 57 40 41 45 45 52 52 54 54 55 55 55 56 57 59 61 62
65 72 74 72 71 67 68 66 68 66 70 74 67 62 62 60 48 56 60 60 54 42 40 42 44 48 50 56 52 55 54 52 53 54 54 53 54 54 54 55 56 58 60
65 65 67 67 65 64 69 68 70 73 72 70 68 78 74 60 63 53 64 60 66 56 46 39 46 49 54 56 51 51 51 49 48 50 50 51 51 52 52 52 54 55 57
61 61 62 65 64 66 68 68 68 69 73 73 69 70 80 82 78 67 61 71 70 69 66 56 46 48 48 52 56 58 60 51 47 49 47 48 50 50 50 50 51 52 54
58 56 54 56 60 65 64 71 62 72 76 78 76 60 72 80 88 88 78 70 72 62 69 65 64 53 49 55 52 65 72 65 53 47 46 47 47 48 48 49 50 51 53
58 55 54 56 62 70 73 75 77 71 76 77 79 81 80 83 84 93 89 88 78 70 66 67 64 62 56 56 63 62 73 71 62 50 46 46 48 47 48 48 49 50 52
58 60 56 64 65 64 66 70 74 76 81 84 84 86 87 87 88 92 95 92 88 78 69 62 61 64 60 60 48 61 62 66 66 54 52 48 45 46 47 49 50 50 51
60 63 62 66 68 67 68 71 73 80 83 87 87 88 89 84 85 81 85 95 93 80 70 66 62 61 45 61 56 62 61 72 70 63 47 45 46 45 47 48 48 48 49
62 58 55 57 59 59 62 67 75 78 84 91 85 88 90 89 88 78 81 87 90 78 74 66 65 60 62 58 57 58 54 60 66 69 60 51 48 48 49 49 49 48 49
43 54 57 56 58 58 61 66 73 72 82 84 85 86 86 87 87 78 74 66 75 90 72 70 68 55 58 57 54 58 57 54 64 64 64 58 49 47 49 50 50 50 51
50 54 55 57 58 60 63 72 80 80 83 88 81 80 81 83 80 75 68 66 70 70 73 67 64 62 57 44 48 62 58 52 56 61 62 66 63 53 51 52 50 49 52
50 52 55 56 58 64 75 79 78 77 80 80 80 81 79 75 75 74 71 71 75 75 78 68 63 61 61 62 62 64 61 61 61 60 63 62 62 65 66 65 62 59 58
54 53 56 58 60 72 73 74 77 77 80 78 80 79 72 58 70 75 74 71 68 68 72 71 70 64 65 64 66 66 49 40 52 51 61 64 64 64 66 67 72 70 69
53 55 54 59 65 71 67 71 74 76 71 75 78 77 75 74 78 70 65 66 67 53 72 77 71 68 60 67 64 65 66 68 52 53 58 60 62 64 65 67 66 71 74
54 56 58 64 68 70 68 71 64 69 77 76 76 77 73 66 58 58 56 61 59 74 76 79 71 66 68 65 74 75 71 75 81 60 62 66 68 63 62 65 70 68 71
57 58 62 67 71 69 63 72 72 69 72 73 70 63 59 57 58 58 53 71 76 77 79 76 73 75 77 79 84 72 93 92 77 81 73 65 80 68 66 67 64 66 68
57 61 68 71 72 62 75 73 72 74 78 73 72 68 61 59 62 67 67 66 73 77 79 92 83 85 84 82 95 88 91 83 82 75 90 78 74 74 72 72 69 72 72
67 71 68 67 73 78 78 81 85 81 72 72 76 71 62 56 71 68 64 64 66 61 72 86 88 84 95 89 85 81 79 85 87 79 86 91 82 89 81 63 70 71 70
69 74 72 69 77 80 85 89 82 91 77 78 76 74 74 77 74 73 73 78 75 74 71 63 77 76 77 69 75 75 85 88 86 80 81 96 92 94 89 89 77 73 74
68 72 73 78 86 98 94 92 90 83 83 83 74 74 78 79 67 64 78 85 78 76 60 65 63 66 68 69 68 82 95 96 91 87 93 90 97 89 94 88 92 78 77
63 75 76 81 83 91 94 88 82 96 95 92 84 79 70 74 67 67 90 94 94 78 83 76 74 74 75 76 77 86 91 96 94 92 88 96 83 96 96 98 97 97 93

GFSMA_sfc_rhum_060.txt.gz
RH
98 95 93 83 84 80 75 73 70 65 62 57 56 52 53 50 46 50 59 66 73 60 58 58 55 54 53 53 54 57 58 58 58 69 70 70 70 73 77 79 82 84 84
94 94 92 90 87 78 74 71 69 67 65 59 53 53 54 51 49 52 52 63 78 72 61 53 49 50 49 50 54 56 57 56 57 60 60 63 64 66 68 72 73 76 79
86 84 86 79 76 76 74 71 68 65 64 56 54 53 55 53 51 49 47 53 80 77 67 50 45 49 46 46 52 53 55 55 54 54 56 55 57 58 60 62 63 65 68
78 76 78 80 84 81 77 74 70 66 68 66 60 59 57 56 53 52 51 47 70 81 72 61 49 47 45 41 48 48 48 51 49 52 55 56 56 57 58 60 61 63 64
76 78 78 82 80 78 77 70 74 69 69 67 53 56 57 60 58 49 53 50 49 56 65 58 62 59 47 41 41 41 44 49 49 50 51 52 54 54 53 54 58 59 61
76 80 79 77 73 72 76 71 66 70 72 69 47 49 63 62 60 64 63 52 53 53 51 49 51 58 59 52 51 48 54 51 53 52 52 51 51 52 52 52 54 56 58
73 75 76 71 69 68 72 67 70 67 71 75 68 72 70 63 61 64 67 68 61 56 53 49 50 56 54 46 42 42 47 46 47 47 48 49 49 50 51 52 52 53 54
74 70 72 69 66 70 69 68 70 76 75 75 70 80 76 72 69 58 67 66 70 65 58 50 54 54 58 60 56 42 45 45 45 45 45 47 49 50 50 51 50 50 52
68 67 65 67 67 70 69 70 72 71 74 77 75 72 82 84 86 74 67 74 74 72 70 63 58 50 50 55 56 59 62 56 44 47 48 46 47 48 48 48 48 48 49
64 61 63 66 68 72 70 76 71 76 81 80 79 67 77 79 90 94 81 72 75 68 74 72 65 56 55 58 55 60 70 74 58 52 48 47 47 48 49 48 47 48 49
66 61 62 66 72 77 74 73 76 74 81 80 83 86 86 90 90 95 94 90 83 74 73 72 68 66 60 59 63 65 66 73 69 54 49 47 48 47 46 47 47 47 48
64 62 63 69 70 71 72 76 78 79 84 90 89 91 90 91 93 95 95 91 94 85 75 71 64 65 65 63 49 59 65 69 75 56 50 47 48 45 45 47 46 48 48
66 62 64 64 67 66 65 67 70 73 80 90 90 92 93 93 92 92 93 92 98 90 77 71 64 65 54 65 61 55 50 58 60 55 52 47 46 46 47 48 49 49 48
65 67 59 60 59 60 64 70 77 79 83 92 90 92 93 92 94 94 93 94 96 87 81 70 69 62 66 67 66 60 60 61 63 64 51 49 48 49 48 49 49 49 49
56 58 57 59 60 62 70 74 84 87 87 90 92 92 94 92 94 94 87 86 94 99 94 77 72 65 65 63 60 64 65 58 64 60 57 51 49 48 49 48 48 49 50
53 56 58 59 59 68 74 78 83 83 82 86 80 83 84 86 83 80 68 71 74 97 98 76 70 66 62 46 48 64 66 53 57 59 66 58 53 52 50 49 50 50 50
54 56 58 57 59 70 74 78 78 79 80 83 82 83 82 77 80 72 79 80 78 67 74 71 69 69 69 70 57 63 65 65 65 58 63 62 65 64 62 61 62 57 56
57 57 58 57 60 72 76 72 74 74 76 78 77 84 82 64 78 80 74 69 66 67 70 72 74 74 72 69 67 73 55 47 62 57 58 61 60 59 64 68 70 71 68
56 58 58 61 63 75 72 73 74 77 80 77 77 82 80 80 82 74 67 66 66 55 73 79 76 76 75 72 69 68 70 75 60 60 59 59 57 58 58 64 71 71 73
59 58 61 64 71 74 71 72 72 75 77 78 82 82 82 79 73 63 60 61 62 75 77 79 74 69 76 71 79 80 83 80 83 59 59 60 59 61 67 64 60 62 67
59 65 69 72 74 75 70 79 77 81 76 75 81 72 64 61 58 62 58 72 75 76 78 77 72 78 77 80 83 85 86 81 76 70 68 70 79 69 70 69 67 68 65
61 68 71 76 77 66 71 76 74 78 86 90 92 87 70 61 68 68 68 68 71 75 81 87 86 91 85 84 97 94 84 86 88 82 92 81 81 80 76 77 74 74 73
67 68 70 75 77 79 82 76 81 92 94 86 85 78 65 61 74 72 69 64 64 64 74 87 95 90 95 84 79 85 83 88 85 79 89 92 87 89 81 71 76 74 75
68 69 72 77 79 78 82 84 90 89 92 85 82 74 73 77 76 73 72 74 71 70 69 64 82 86 79 77 79 79 94 94 91 86 87 97 85 88 85 84 75 78 80
71 70 71 76 82 90 90 91 92 96 81 82 79 77 76 82 75 68 77 83 76 73 54 63 64 66 68 65 71 87 92 95 91 86 90 95 91 92 83 86 88 79 80
74 78 79 85 82 86 90 95 95 95 91 90 85 83 76 76 74 71 90 91 91 76 75 80 78 74 76 78 74 88 93 96 92 91 89 94 85 93 97 97 96 93 96

GFSMA_sfc_rhum_063.txt.gz
RH
97 95 92 84 80 78 71 67 62 59 58 52 56 53 51 52 52 56 64 62 74 59 51 54 53 53 53 54 55 56 56 57 58 60 63 63 62 63 65 67 68 69 72
95 94 92 90 89 76 72 68 65 63 63 58 56 55 54 56 53 54 59 70 70 72 58 51 48 49 49 52 54 55 56 56 55 55 56 56 60 61 62 63 64 66 67
87 85 86 81 79 76 73 69 67 67 64 55 56 53 56 57 55 54 52 64 91 81 69 52 45 47 44 45 49 49 53 51 51 53 56 57 58 57 57 58 60 62 63
80 80 82 87 85 78 75 73 68 68 69 65 60 57 58 58 56 56 54 52 71 75 66 59 50 45 41 40 46 44 46 46 48 50 52 54 53 53 51 51 54 57 59
77 82 87 84 79 78 76 68 74 70 67 64 57 56 65 63 63 52 56 55 56 56 56 54 58 58 45 41 40 41 41 49 49 50 48 48 49 50 51 51 51 53 56
79 80 79 80 71 76 75 70 67 74 72 68 49 53 70 66 66 68 63 55 57 57 56 54 57 60 55 44 47 49 50 51 50 50 50 49 48 48 50 51 51 52 53
78 79 77 73 71 70 70 66 72 68 75 77 70 75 73 71 66 69 71 69 62 59 58 58 62 61 58 55 51 43 44 47 48 47 49 51 47 50 51 52 52 52 52
74 72 72 70 69 74 71 70 72 79 78 80 75 82 79 74 70 67 71 70 71 69 60 56 60 56 58 59 60 49 48 48 47 46 45 45 47 47 47 46 48 50 50
73 71 71 74 72 73 74 74 76 74 76 80 78 74 84 86 88 80 73 78 75 75 71 67 60 52 54 59 58 62 60 60 49 44 45 46 47 47 48 47 47 47 48
71 69 69 71 73 77 75 78 76 80 83 82 85 73 81 81 89 94 86 79 82 74 77 76 70 58 58 62 55 59 70 72 65 58 51 49 47 46 46 46 47 47 48
71 65 67 73 79 78 74 74 78 79 87 85 87 88 89 93 92 95 97 92 87 80 78 81 77 69 61 62 64 62 71 71 74 54 47 46 45 47 49 47 45 47 53
74 68 62 70 72 68 69 74 76 74 83 90 93 93 92 92 93 96 99 96 96 92 87 78 71 67 68 68 54 58 63 59 59 54 51 51 47 45 46 45 47 47 48
70 64 67 72 63 64 65 66 71 74 78 85 88 93 95 94 94 95 96 97 88 86 79 76 71 70 56 73 70 57 58 62 60 52 47 45 46 47 48 48 48 49 50
70 76 76 61 57 61 67 73 79 84 88 92 88 91 95 95 96 95 96 96 97 85 85 74 74 68 67 68 61 55 70 60 60 60 58 53 52 51 50 50 50 50 50
76 70 61 63 64 68 72 79 85 84 85 86 85 87 92 94 96 96 96 96 97 94 96 84 75 64 63 64 59 64 68 59 57 58 56 54 52 52 51 50 50 50 50
64 60 61 62 64 71 77 77 82 84 80 86 84 86 88 91 87 85 84 86 95 97 95 78 72 65 63 50 54 61 64 58 59 55 53 54 54 54 53 53 53 53 53
57 60 61 62 64 70 77 79 80 80 78 82 83 83 84 86 84 83 86 94 97 98 97 74 74 71 71 71 66 70 70 71 70 59 58 57 58 63 64 62 62 60 57
58 61 63 61 61 68 77 80 77 75 80 82 80 81 84 73 84 84 83 75 73 70 72 70 73 75 75 72 72 74 61 53 68 62 62 64 61 60 60 60 62 65 67
57 61 62 65 65 70 79 79 76 78 81 84 82 83 84 85 87 86 75 72 70 55 72 78 80 78 79 75 74 74 74 77 66 64 59 58 57 58 61 60 62 64 68
61 62 66 70 73 74 79 75 73 80 82 80 84 87 87 87 88 81 66 66 61 69 77 80 78 71 75 75 83 85 83 82 70 58 62 64 62 63 63 65 65 65 64
58 65 70 71 76 76 72 79 80 85 87 84 81 82 82 68 65 67 59 64 72 78 79 78 76 75 77 84 86 84 91 79 77 75 74 72 74 72 74 75 72 72 72
67 67 70 75 78 72 76 82 83 85 82 84 93 92 88 78 76 73 70 66 73 75 78 86 80 79 86 88 98 94 88 91 90 83 92 85 82 81 77 79 75 76 75
71 69 71 72 77 82 81 82 80 84 89 94 95 90 78 60 71 75 77 75 72 66 79 85 91 90 97 89 82 89 89 90 90 83 92 85 85 88 77 68 72 72 73
74 74 76 76 82 78 81 83 84 93 94 92 85 81 77 75 76 74 74 77 73 70 67 61 78 87 85 80 85 80 91 94 91 84 90 95 84 90 83 82 77 73 74
77 79 77 81 84 86 84 85 89 98 97 94 77 81 78 80 76 76 82 86 79 74 58 58 64 65 67 68 68 93 93 97 92 85 85 95 96 87 84 85 84 76 77
75 82 84 88 88 91 84 89 93 99 99 94 87 82 82 83 78 78 91 92 94 80 71 70 78 75 71 79 76 85 97 97 94 92 92 96 82 90 97 96 94 95 91

GFSMA_sfc_rhum_066.txt.gz
RH
96 94 91 82 78 74 67 65 63 58 58 57 57 56 56 57 56 60 69 68 72 66 48 53 54 53 54 55 55 54 54 55 57 57 57 59 62 63 63 64 65 65 67
94 93 92 89 86 72 69 66 64 63 63 59 57 59 60 59 56 59 64 85 84 72 59 52 49 49 49 52 54 54 56 54 52 54 57 58 59 56 55 56 58 60 62
88 85 86 80 78 66 64 63 67 67 64 57 56 58 60 60 58 57 57 73 82 70 65 60 47 45 43 44 48 48 50 49 49 52 53 55 53 53 51 52 53 56 58
82 81 75 76 75 70 67 64 66 68 69 63 59 63 63 62 60 58 56 58 64 56 61 64 59 51 42 42 43 44 46 47 48 48 49 50 50 51 51 51 52 53 55
80 76 84 85 78 76 72 64 70 69 66 65 55 65 68 64 63 51 58 59 60 58 56 55 61 62 51 44 42 44 43 48 50 50 49 48 49 52 52 50 51 54 54
81 84 80 82 78 76 74 70 70 76 72 70 52 60 73 67 70 69 65 55 60 61 59 58 61 59 59 52 48 47 47 47 56 53 56 52 49 50 50 52 53 53 53
78 80 80 75 75 71 70 68 74 70 76 79 71 74 72 72 70 70 72 67 64 63 63 59 62 60 56 53 51 51 50 48 46 46 51 56 57 49 48 47 47 49 52
79 74 75 73 73 74 73 73 74 80 80 81 77 80 79 74 70 70 72 69 71 68 62 60 62 57 56 56 60 49 48 48 49 47 46 45 45 49 47 47 47 46 48
79 74 74 75 77 76 75 76 76 74 77 81 80 75 80 81 84 78 75 76 76 75 74 69 65 61 57 59 57 60 61 59 57 49 48 46 47 46 47 46 45 45 52
78 74 74 76 77 79 73 80 72 81 81 79 83 76 82 81 85 90 82 79 80 75 79 78 74 69 61 62 58 58 62 67 58 51 48 47 47 47 46 47 49 47 51
73 71 74 77 73 80 74 76 80 83 86 85 86 87 88 91 90 93 95 88 84 80 77 81 82 75 65 65 64 63 64 68 56 53 52 50 49 48 52 51 49 48 54
78 73 65 70 75 70 67 72 75 75 84 88 92 93 92 91 91 96 99 96 95 88 84 83 81 70 68 66 56 60 59 62 61 56 46 44 45 46 46 47 47 48 47
76 73 70 74 66 64 64 71 72 73 77 82 86 91 95 95 93 94 96 97 98 90 83 78 72 67 51 66 63 55 57 58 58 59 58 55 52 49 48 48 48 49 50
71 77 83 80 65 61 68 71 76 81 87 91 88 92 91 91 94 95 95 94 96 90 78 76 70 62 61 62 57 55 63 56 54 56 58 61 60 57 55 53 52 51 51
78 86 88 80 61 62 68 76 82 82 87 87 86 85 88 88 92 94 95 96 96 91 85 79 72 64 57 59 58 63 59 57 55 58 59 58 56 56 56 55 54 53 52
83 92 80 65 63 67 74 81 84 84 85 87 84 86 85 88 88 86 86 89 94 94 90 87 73 67 59 48 56 62 59 58 62 60 58 57 58 58 56 56 57 58 58
91 73 65 64 65 72 77 81 83 83 83 80 81 84 82 84 88 85 86 92 95 95 93 83 72 63 61 61 61 63 64 63 66 63 65 63 62 62 65 63 62 61 62
72 68 66 65 67 70 77 82 82 76 83 80 80 83 81 73 89 89 88 88 90 93 75 67 63 66 67 65 66 66 59 54 63 67 64 65 62 59 59 59 59 60 61
64 61 62 65 69 71 73 82 82 80 81 83 84 86 84 87 89 89 82 77 69 57 68 68 70 72 70 67 66 68 69 69 65 59 58 61 61 65 65 63 62 62 63
60 61 64 69 74 75 76 81 78 81 85 84 86 88 88 90 91 90 82 73 65 65 68 73 75 70 67 63 74 77 75 68 64 55 61 66 65 66 68 68 70 71 71
57 61 69 72 76 77 73 81 82 86 89 88 86 82 84 81 72 77 66 68 65 69 72 74 73 72 66 70 73 75 84 76 73 69 67 66 64 68 70 72 71 71 71
63 71 71 73 74 69 77 84 87 88 86 85 87 88 91 89 88 83 82 75 66 69 76 79 76 75 69 72 84 88 84 86 80 72 79 77 69 70 66 68 72 72 72
68 71 72 73 75 78 80 84 85 90 86 88 91 92 90 74 75 71 73 76 77 72 81 81 87 78 85 80 80 82 82 81 81 72 79 86 74 78 67 61 70 71 72
71 75 77 79 82 78 81 83 87 91 92 92 94 93 90 81 73 75 75 81 76 70 68 67 75 74 75 76 76 77 84 87 81 73 72 94 75 82 76 68 72 75 74
75 78 79 81 84 85 83 84 89 94 96 96 92 92 86 79 76 75 86 86 78 72 64 68 65 68 72 67 69 86 87 90 90 79 74 86 84 80 74 77 79 73 72
77 82 78 81 82 90 84 87 89 100 94 91 91 90 84 85 83 84 92 93 94 80 75 67 64 67 69 72 74 82 87 93 86 86 79 83 70 83 86 81 79 81 85

GFSMA_sfc_rhum_069.txt.gz
RH
88 82 76 61 57 47 45 45 42 39 42 41 40 38 38 39 40 36 40 83 77 65 50 56 55 54 54 53 53 51 52 52 53 54 57 58 58 55 54 56 57 60 61
84 76 71 62 52 44 41 40 39 36 37 37 40 41 40 36 37 45 46 55 74 69 62 53 50 49 49 50 51 52 52 50 49 53 54 54 53 53 52 53 55 56 58
78 69 59 52 47 49 53 47 46 42 36 34 41 40 37 40 36 37 38 48 47 68 66 58 51 46 43 43 47 47 50 48 46 48 51 50 49 50 51 51 52 55 55
68 64 55 54 52 49 49 44 41 41 41 36 41 37 37 37 38 37 35 34 35 32 48 62 60 57 49 45 45 44 46 50 48 49 49 48 48 49 51 51 51 53 54
68 58 58 58 56 50 50 45 48 43 41 37 35 41 41 37 39 31 37 38 40 36 32 44 55 60 60 55 50 48 46 46 51 52 53 50 50 48 50 50 51 53 53
68 66 57 60 52 52 51 48 50 48 44 44 33 39 45 41 42 41 39 34 38 41 37 39 36 35 55 53 54 55 49 47 46 54 59 59 57 54 52 49 49 48 50
72 64 57 59 57 51 50 54 50 52 49 51 45 44 45 48 49 43 42 40 40 40 43 40 37 34 32 45 47 48 50 52 54 54 54 51 57 58 55 51 51 45 47
64 61 61 56 56 52 57 56 54 51 51 53 49 49 43 40 44 44 44 45 50 41 40 43 46 43 39 33 41 50 50 50 50 48 48 48 48 48 50 53 46 46 45
60 60 59 57 57 51 51 57 57 56 50 55 59 48 41 36 43 44 52 47 52 47 47 45 48 45 46 40 42 41 54 56 50 48 46 47 48 48 48 54 55 53 49
62 57 57 58 57 54 57 57 56 58 56 50 54 52 59 54 40 39 45 48 50 51 53 48 46 49 53 43 46 51 62 65 60 51 48 47 46 47 48 50 46 55 57
61 56 57 59 60 59 66 64 64 62 54 47 45 46 54 51 59 58 48 46 47 47 46 47 47 48 52 46 40 48 60 63 62 57 54 49 49 49 49 49 54 56 49
58 59 54 61 64 61 67 66 61 61 54 53 50 54 51 50 47 59 61 49 50 50 49 48 47 47 47 41 40 52 57 59 59 58 58 58 56 52 50 49 49 49 49
58 60 60 65 56 74 76 65 57 57 56 53 57 53 58 58 56 53 58 56 56 47 54 51 47 46 38 40 40 52 51 57 55 55 56 57 59 60 58 56 53 51 50
58 61 64 73 79 84 69 62 58 51 58 65 67 68 59 53 53 50 53 62 71 50 48 59 46 47 41 42 45 50 41 50 54 55 56 58 58 58 58 58 57 55 53
60 67 78 90 92 73 55 57 51 56 63 66 67 68 60 52 54 51 54 60 69 66 43 44 52 49 46 46 44 42 43 46 55 57 59 60 59 58 57 56 56 56 55
64 76 94 94 74 52 54 58 56 58 63 64 59 62 57 53 53 53 52 54 55 59 60 41 46 49 48 36 37 45 42 52 49 58 62 62 63 62 61 60 58 58 58
88 94 92 71 52 51 54 58 59 59 62 62 62 61 60 57 54 52 55 55 56 62 65 50 50 46 46 43 40 42 40 37 38 52 62 65 65 65 63 64 63 61 61
89 86 67 51 49 50 52 57 58 56 62 63 61 61 61 50 60 58 56 58 57 58 72 64 48 42 45 43 45 46 35 31 39 45 61 61 59 61 61 61 62 62 62
69 57 52 53 50 52 53 56 58 60 62 61 60 61 59 59 60 55 56 57 55 54 57 61 53 42 43 44 44 41 38 43 38 49 52 54 56 62 66 64 65 66 65
54 52 52 50 55 54 55 56 56 61 63 61 64 65 62 60 58 57 58 60 64 63 65 60 48 45 44 43 45 43 39 37 37 34 43 51 59 59 63 64 66 68 68
48 46 49 54 56 55 50 54 56 62 64 64 64 61 61 65 74 72 58 59 60 60 58 52 47 45 46 45 46 39 46 42 44 42 42 40 40 40 43 50 52 61 64
51 53 53 57 57 47 69 83 75 57 58 61 61 58 58 73 72 88 89 87 75 58 56 52 49 53 50 46 50 49 51 53 56 42 49 48 41 41 41 41 52 63 69
56 56 58 58 57 57 77 81 84 57 56 57 59 59 56 56 74 62 72 78 79 78 73 58 69 58 66 58 45 48 48 49 49 43 48 58 49 50 45 39 56 63 68
56 55 57 59 61 54 77 80 83 61 61 62 64 62 62 61 61 66 59 55 53 53 56 54 54 52 51 48 45 51 60 63 57 45 45 75 54 56 50 49 57 63 69
55 56 56 58 59 56 75 82 79 62 64 64 63 64 64 63 72 79 69 75 64 57 59 68 67 67 71 66 69 65 73 72 73 58 51 64 58 54 54 56 53 59 64
54 54 55 57 64 61 72 84 79 72 93 74 67 68 82 81 81 83 85 90 93 68 55 54 53 56 57 54 69 63 65 75 65 66 47 63 50 56 68 54 58 60 62

GFSMA_sfc_rhum_072.txt.gz
RH
62 57 57 50 45 44 40 41 39 35 35 32 29 28 27 29 28 23 30 77 74 64 51 58 54 54 54 53 51 49 51 49 50 52 55 54 54 53 54 56 57 58 59
68 68 63 50 45 39 37 36 32 28 27 28 30 30 29 26 27 30 26 41 71 68 61 55 51 50 48 49 50 50 51 49 47 49 52 50 50 51 52 52 54 55 56
73 68 53 46 41 41 45 36 33 30 25 23 28 28 26 29 26 28 24 29 37 69 66 64 57 50 46 44 46 48 48 51 49 48 50 48 46 48 50 51 52 52 54
63 57 49 46 44 39 35 34 30 28 28 26 29 25 26 26 29 28 25 24 24 20 54 57 60 62 61 56 49 48 47 46 53 51 50 52 50 48 48 48 48 50 53
60 51 48 49 46 39 38 32 33 33 32 28 25 29 31 27 30 21 29 30 32 26 22 49 42 44 50 52 55 54 49 47 48 54 53 55 54 53 50 51 49 47 48
58 53 48 49 40 39 38 35 39 35 34 33 24 27 35 30 29 30 29 24 28 31 28 31 29 28 47 46 49 50 49 48 51 54 57 62 66 68 62 56 52 48 45
57 53 44 47 43 41 40 44 42 44 39 39 39 35 34 38 38 32 31 29 30 30 34 32 31 26 25 38 45 46 50 50 51 51 52 51 50 51 52 64 55 55 49
56 51 48 46 44 42 46 46 45 41 41 42 42 39 35 30 34 33 32 31 37 33 29 32 36 36 33 29 35 46 47 52 50 49 48 49 49 50 51 52 57 58 62
54 47 48 46 48 41 42 47 46 48 43 44 47 39 31 28 26 26 36 34 38 37 34 34 35 36 36 34 39 40 55 58 53 49 48 48 48 48 48 49 48 56 58
49 46 47 49 48 40 45 46 44 48 48 43 39 35 40 37 28 28 24 30 34 37 40 36 35 36 36 36 43 50 62 66 62 56 54 51 50 50 49 48 50 50 57
51 46 48 50 48 42 48 54 54 53 43 40 32 31 34 34 37 41 42 34 29 27 29 32 35 36 36 38 38 51 60 59 58 58 58 57 57 56 52 50 48 49 48
52 52 45 49 49 51 53 54 66 68 51 38 33 33 33 33 33 36 37 35 33 28 26 32 36 35 35 37 40 52 50 56 56 55 55 56 58 59 59 58 57 55 54
53 54 51 53 49 50 72 82 76 46 42 40 41 34 36 38 37 37 39 39 35 29 30 33 35 34 31 36 36 52 47 52 54 55 54 54 55 56 57 58 60 59 56
50 51 53 50 50 81 86 78 55 42 44 46 47 45 38 38 37 37 37 41 47 37 32 34 29 33 34 33 43 52 44 53 48 53 56 56 56 57 57 57 57 58 57
48 56 54 62 81 92 85 60 45 45 46 48 50 50 45 39 41 40 38 37 42 51 36 29 29 32 35 37 44 42 41 50 53 55 54 59 60 60 61 61 60 60 59
54 59 70 86 94 86 58 48 44 43 46 46 43 47 46 41 41 41 38 38 38 42 47 32 29 31 36 34 39 38 39 48 51 52 50 57 63 64 64 64 63 62 61
62 76 91 94 76 52 44 46 44 42 45 46 45 48 48 46 44 42 40 38 40 39 42 36 31 32 44 44 38 38 38 37 33 50 49 53 61 63 62 61 62 64 62
86 94 90 68 49 39 42 42 42 38 43 45 45 47 48 38 47 46 42 44 41 39 40 48 44 38 46 44 43 43 34 26 30 39 50 53 60 59 60 61 64 64 64
84 80 59 47 42 41 38 40 40 42 44 44 45 46 45 46 48 44 42 41 38 33 38 45 47 41 44 42 42 39 36 35 25 40 53 55 52 50 57 61 62 63 65
75 66 59 45 44 38 38 40 38 41 42 41 45 46 45 46 47 46 42 42 39 41 44 53 55 59 47 41 38 36 35 29 28 23 37 48 50 49 56 59 57 59 62
70 67 42 38 41 42 35 38 36 40 41 41 43 43 47 52 67 66 43 45 44 46 57 62 69 56 43 37 38 33 36 33 33 34 34 33 33 34 36 45 47 53 55
55 39 43 47 46 34 63 75 66 42 38 39 42 41 39 55 62 83 84 84 72 57 64 68 62 57 45 38 41 40 40 41 45 36 39 40 34 36 34 34 54 54 58
47 52 49 44 43 41 72 79 82 43 40 40 40 40 37 31 53 48 64 87 88 89 90 69 67 58 60 54 50 45 39 38 39 36 42 48 42 45 38 30 59 56 58
50 45 44 43 43 37 69 78 81 48 43 42 42 43 45 46 46 50 49 50 49 49 58 53 50 46 46 46 45 42 45 50 50 43 40 65 47 48 44 40 54 55 58
43 41 37 41 43 42 70 79 75 52 49 50 45 46 45 48 56 73 62 68 60 53 57 69 71 74 68 68 65 57 65 71 74 52 41 50 50 46 44 46 47 56 61
38 38 40 44 53 51 66 81 74 67 74 68 60 56 65 62 70 82 79 80 88 64 55 57 54 60 69 60 74 62 60 73 64 61 43 54 44 44 60 48 50 49 53

GFSMA_sfc_rhum_075.txt.gz
RH
72 62 57 46 43 44 44 44 44 39 36 31 28 26 25 27 27 23 42 76 74 64 54 58 55 55 54 53 50 50 50 49 48 50 52 52 52 52 53 54 55 56 56
81 73 58 49 48 44 40 40 38 31 27 29 31 29 28 25 26 28 24 49 76 69 64 57 51 50 48 48 49 48 50 50 49 48 48 48 48 50 51 51 52 52 53
70 66 57 57 45 43 46 39 33 30 27 25 29 28 24 28 25 26 23 26 49 73 67 64 62 59 54 49 47 47 48 49 52 50 49 50 50 49 49 49 50 50 50
68 64 53 48 45 45 38 34 31 30 30 29 31 27 27 26 28 27 25 24 24 20 60 57 50 46 48 52 55 54 52 49 48 53 54 54 54 54 52 50 50 48 49
62 52 47 48 49 41 38 34 34 35 35 31 27 30 33 28 29 19 28 28 30 29 24 51 44 44 44 40 42 47 48 47 49 50 54 61 62 68 66 57 55 53 49
58 51 47 52 44 38 38 35 41 36 35 36 28 30 36 34 30 30 30 25 26 31 30 31 32 34 49 42 41 42 45 48 50 51 53 55 55 54 54 58 65 62 54
56 54 47 51 43 40 40 47 44 47 42 40 41 37 34 39 40 34 31 30 29 29 30 32 33 28 28 46 46 41 46 47 52 52 51 52 51 52 51 52 55 63 57
66 53 50 48 44 40 47 48 46 43 42 43 46 43 39 33 35 35 32 32 36 31 32 30 32 35 34 32 37 44 43 46 50 52 50 50 50 50 50 50 51 52 58
55 52 49 47 46 44 46 50 48 48 45 44 47 47 41 35 33 27 30 31 37 37 37 33 35 34 35 34 41 49 59 59 56 54 52 51 51 51 52 52 51 49 50
61 51 47 46 49 44 46 49 45 49 51 47 54 37 41 42 42 41 30 28 29 35 38 35 34 34 34 34 45 61 62 62 58 55 55 55 55 55 55 55 53 51 50
63 49 46 49 52 45 48 49 55 56 49 60 61 38 37 34 36 39 41 36 30 26 24 25 30 33 34 34 36 56 62 59 56 54 54 55 56 56 57 58 57 55 53
60 53 46 51 51 50 52 55 62 60 68 55 39 38 35 34 34 36 40 39 33 29 25 25 29 33 34 34 37 56 59 57 54 54 54 56 56 55 55 56 57 58 56
60 55 52 55 53 53 54 65 69 74 64 55 45 39 32 34 36 38 39 38 37 30 29 30 29 30 28 34 35 51 51 60 60 56 55 57 56 56 55 55 56 56 57
58 55 58 55 53 53 63 66 69 72 66 61 49 45 39 36 36 36 36 40 47 38 32 35 27 27 30 32 45 58 44 65 65 54 56 57 55 57 57 57 58 59 59
55 61 60 56 57 63 78 82 75 66 51 48 52 50 46 42 40 37 37 38 44 54 42 34 32 31 30 32 40 39 43 58 60 59 59 54 52 58 61 61 61 62 62
70 62 64 63 80 91 92 86 65 46 46 47 43 46 46 42 39 38 36 38 38 43 50 34 32 35 34 24 36 40 40 55 56 60 65 58 51 55 60 62 62 62 63
66 69 83 90 92 94 88 66 48 48 43 45 45 45 46 44 42 40 39 38 38 40 45 40 33 35 40 43 37 41 41 40 42 60 66 55 52 55 58 62 63 62 63
89 93 92 88 92 77 59 54 51 42 42 42 44 45 43 33 43 44 42 44 42 41 42 48 40 38 42 42 46 52 39 31 36 41 58 54 55 56 57 59 59 62 64
96 92 90 88 78 65 51 41 39 42 43 42 43 41 40 40 45 44 44 42 41 32 40 42 43 40 39 40 42 46 46 45 32 43 56 57 58 57 57 54 58 62 62
92 93 92 88 79 51 39 37 38 40 39 37 38 39 39 40 42 45 43 46 40 44 42 42 41 41 43 44 49 56 55 46 38 25 36 47 53 52 56 59 63 61 63
87 72 74 74 52 37 35 41 38 37 36 36 38 34 38 44 65 61 44 51 51 48 46 45 44 49 54 59 59 54 56 51 43 35 35 37 35 35 38 50 55 63 60
69 71 62 40 44 40 72 64 59 40 37 36 36 34 32 46 45 73 74 75 64 58 60 61 59 60 60 63 56 57 56 54 54 40 42 45 37 38 38 38 57 56 55
55 52 44 49 48 42 71 72 78 44 39 37 38 38 34 27 47 38 56 79 79 82 83 69 70 63 68 59 53 50 51 51 48 38 45 52 49 51 43 31 57 62 62
52 52 48 44 43 36 73 76 81 49 45 44 44 43 45 46 47 52 49 53 52 52 65 63 64 59 54 51 52 54 56 51 48 44 45 72 56 53 50 47 53 59 63
49 46 39 37 38 40 75 79 72 53 54 55 49 48 46 50 59 74 68 68 63 66 56 69 70 72 74 71 65 62 73 74 78 61 53 59 55 51 49 50 52 62 62
36 33 34 38 55 48 80 79 65 62 66 62 51 45 59 56 71 81 78 82 97 74 70 69 59 67 70 61 78 64 64 77 66 67 52 61 59 49 60 52 50 55 58

GFSMA_sfc_rhum_078.txt.gz
RH
81 78 74 69 63 66 68 66 65 61 50 44 43 39 40 40 40 56 73 78 77 65 63 58 57 57 55 54 51 50 51 51 49 48 49 49 50 51 52 52 53 53 53
88 86 77 73 69 66 65 68 65 53 52 48 44 40 40 41 38 42 64 84 78 73 65 58 52 51 48 47 49 48 48 49 50 50 49 49 50 49 50 51 51 51 51
85 81 78 75 70 71 70 62 52 51 48 40 44 42 45 38 42 37 46 65 82 77 74 66 63 62 58 56 54 53 52 49 50 51 51 53 53 53 52 51 51 50 50
82 80 77 76 74 68 64 60 57 55 55 53 51 48 44 40 38 36 38 43 52 56 75 68 59 52 48 46 44 46 50 51 50 49 51 55 62 60 64 63 56 54 52
81 86 82 79 70 69 67 57 58 59 58 52 48 51 52 51 44 30 36 38 44 45 53 63 58 54 46 39 36 37 41 44 46 48 50 53 56 56 55 56 60 67 66
78 80 77 74 70 66 66 63 60 57 60 61 40 47 58 55 51 49 46 37 43 45 42 47 56 58 59 43 42 38 39 43 47 50 52 53 53 54 54 55 55 56 63
74 77 70 73 73 66 64 66 68 64 64 65 66 68 68 63 56 54 55 51 44 42 46 45 51 51 52 49 47 42 44 42 43 46 50 51 52 52 52 52 52 53 54
77 72 74 72 72 68 72 70 69 72 69 70 73 71 73 69 65 59 59 53 55 47 45 45 47 46 50 52 58 43 46 44 46 49 51 52 52 53 53 53 53 52 51
84 84 73 72 70 71 74 75 70 67 75 73 66 70 72 70 65 58 64 59 52 57 57 53 49 48 50 54 56 66 60 55 50 49 51 53 54 54 55 55 54 54 53
76 69 65 70 71 71 72 75 67 73 69 75 72 59 64 61 70 69 57 55 60 54 60 64 54 51 48 54 55 72 69 63 55 51 52 52 54 55 56 55 54 54 53
84 90 76 71 72 71 75 72 78 70 75 71 69 57 59 65 68 68 67 59 53 52 48 49 53 56 47 53 61 73 69 65 58 50 48 51 55 57 58 58 56 55 55
86 80 69 70 74 70 73 79 79 78 75 66 66 60 61 58 58 64 69 66 63 53 49 49 51 55 60 56 50 68 68 64 58 54 52 53 55 57 58 57 57 56 56
82 76 73 74 75 72 77 81 83 81 72 73 65 63 61 58 58 61 66 69 65 58 56 54 53 53 46 59 63 70 66 70 65 60 56 53 56 58 57 56 57 57 57
76 73 76 71 76 77 84 82 83 81 74 76 63 67 64 60 61 60 61 68 78 68 61 58 53 56 55 58 70 69 65 74 73 67 60 57 58 55 52 55 58 60 60
75 77 73 80 83 78 82 85 82 79 84 86 79 69 67 66 70 66 62 62 70 84 71 63 60 50 54 55 69 71 65 66 75 72 64 62 60 52 50 52 57 60 62
83 83 82 84 88 90 89 87 89 89 91 80 66 67 69 68 68 68 62 65 67 71 71 61 56 54 54 38 50 60 58 61 75 73 74 73 65 55 51 53 55 58 61
91 92 92 93 94 94 95 96 96 87 71 66 64 66 65 63 70 67 68 68 68 68 69 59 59 56 59 61 53 61 63 63 62 69 72 72 73 62 57 57 57 58 62
92 94 96 94 95 96 97 93 83 68 67 64 62 64 64 49 64 69 72 70 69 66 66 64 58 63 62 61 62 65 59 50 53 53 69 71 70 66 67 65 63 62 62
94 93 91 92 94 91 90 85 71 68 62 62 62 63 61 60 66 68 69 70 68 51 66 71 60 62 64 64 64 62 74 78 53 55 63 68 68 67 67 68 67 68 67
92 92 92 92 92 89 80 70 57 59 59 54 58 59 57 58 62 64 60 68 61 74 73 73 67 66 67 65 71 78 74 77 72 43 49 51 62 63 68 70 70 69 69
92 91 93 93 86 75 63 60 55 55 53 52 55 50 51 60 69 67 50 61 66 66 66 69 68 68 70 69 75 81 82 87 82 69 66 58 58 59 58 61 61 64 67
90 88 83 81 76 58 75 68 58 53 52 54 56 53 51 58 50 66 76 77 69 66 68 75 74 84 80 81 84 90 99 99 89 71 64 70 64 66 59 60 57 59 61
78 78 74 74 66 64 76 76 69 57 58 59 60 59 51 38 62 58 66 73 81 82 83 74 78 81 88 83 84 85 79 79 82 72 65 74 72 75 68 44 60 62 64
68 70 69 61 59 53 78 79 81 65 65 65 67 67 68 68 67 74 71 75 77 74 73 76 80 81 82 77 79 72 82 82 79 74 62 90 77 78 78 74 62 60 65
69 65 59 58 54 71 83 83 72 78 76 76 62 63 62 65 68 67 73 77 76 76 67 76 79 87 87 77 76 90 95 94 92 80 77 87 77 78 76 75 72 59 65
59 53 50 70 66 76 78 74 66 93 83 82 73 64 70 70 75 78 80 83 84 78 81 88 84 92 95 94 81 77 85 88 84 87 73 88 78 86 91 74 77 76 80

GFSMA_sfc_rhum_081.txt.gz
RH
80 84 76 78 73 72 75 75 68 60 51 47 46 44 42 45 67 74 92 79 76 72 62 58 59 58 57 55 53 52 52 50 50 48 49 50 50 51 52 52 52 53 52
92 92 76 76 78 73 70 70 70 54 52 47 44 42 43 43 58 72 82 89 79 75 66 56 55 53 49 49 50 47 48 51 49 51 49 50 52 51 51 50 51 51 52
88 88 87 80 75 73 73 71 63 59 57 49 45 47 44 45 40 55 73 82 86 78 75 64 62 61 59 57 55 54 54 54 54 51 54 53 62 62 59 60 58 53 54
83 92 91 84 82 77 67 61 57 57 53 55 55 53 52 46 40 40 59 72 74 75 78 74 63 57 52 46 38 36 40 43 45 46 49 49 60 59 58 54 57 64 66
87 91 92 89 81 71 68 57 65 59 62 62 54 59 54 54 44 37 41 49 54 73 72 72 65 61 47 38 35 35 39 41 44 48 50 53 56 55 55 55 52 54 58
82 93 93 88 81 73 70 66 61 68 63 64 47 51 62 58 56 54 46 40 49 53 61 59 62 60 59 45 41 40 39 39 42 44 47 51 53 53 53 53 54 54 53
80 94 84 89 76 71 67 68 70 64 70 71 69 73 75 71 60 57 59 55 50 50 54 58 60 60 65 55 49 45 44 43 43 44 48 50 51 52 53 53 53 52 52
92 92 80 82 78 74 73 72 69 76 78 75 78 79 77 71 70 61 64 59 60 52 48 49 53 55 58 67 64 46 45 44 47 47 46 49 51 52 52 53 52 52 52
96 90 78 79 80 80 75 75 75 75 77 79 70 73 75 75 69 65 70 70 63 63 58 54 53 52 56 60 65 67 66 58 53 48 48 49 50 50 52 54 53 53 52
90 88 84 76 75 74 70 76 73 80 78 82 81 66 68 66 71 69 65 60 60 62 66 69 65 58 57 63 67 74 74 68 58 55 53 50 47 48 52 55 55 55 54
90 87 86 82 73 75 76 76 79 81 80 80 76 66 60 73 72 70 72 60 60 58 58 62 68 66 58 59 82 80 77 75 68 59 55 51 48 50 51 54 56 56 56
95 92 88 85 77 74 76 72 82 78 77 73 68 70 62 62 56 65 75 73 69 60 56 56 56 56 60 66 66 76 79 77 71 61 55 54 52 52 53 54 54 53 54
95 93 90 86 77 79 84 78 81 77 72 72 73 64 64 59 62 66 71 70 70 66 61 61 57 61 52 66 70 77 77 78 73 62 59 57 56 55 55 54 52 51 53
90 91 88 86 82 82 80 83 83 82 78 80 67 67 67 65 65 64 64 72 76 71 71 62 62 59 62 60 66 80 78 78 75 73 67 62 61 58 57 54 52 52 53
88 89 82 84 88 84 85 87 92 88 86 84 79 81 84 76 71 69 65 66 72 85 80 72 69 58 59 58 65 86 80 77 78 78 76 70 64 61 60 56 52 51 52
88 91 93 90 89 93 94 95 96 93 86 89 92 93 77 73 70 73 67 69 75 78 74 73 68 65 58 44 57 78 68 68 79 79 79 77 72 65 63 57 52 52 51
96 96 95 94 90 92 96 95 94 92 94 95 89 83 77 71 75 76 76 74 74 78 80 74 72 66 65 64 59 65 72 73 80 84 81 79 78 78 73 67 59 57 54
94 93 90 87 94 94 94 94 96 92 91 85 77 72 70 60 75 79 81 78 79 77 76 69 72 75 68 62 65 66 58 53 62 65 78 76 71 76 73 71 70 69 64
94 92 91 92 91 92 95 94 88 87 84 74 71 71 71 68 69 74 74 79 80 66 82 88 84 77 75 73 67 65 66 73 64 66 72 73 77 75 74 73 74 73 72
95 94 93 92 92 92 87 86 81 80 79 76 69 65 60 60 64 67 67 73 71 81 83 86 85 82 79 75 77 79 82 85 82 57 59 62 66 72 75 74 75 75 74
94 93 93 93 92 89 82 83 73 72 59 56 60 54 54 62 74 74 62 69 74 82 87 89 80 90 90 85 81 84 88 92 95 94 93 76 66 62 64 57 60 73 72
94 93 93 93 92 72 76 76 67 61 55 56 58 60 60 63 58 71 78 82 87 87 89 92 85 88 84 92 88 87 93 98 99 93 92 78 70 69 65 66 60 66 69
93 92 89 86 85 81 78 74 73 62 60 62 64 66 63 54 77 76 78 79 80 82 89 92 92 90 89 90 90 95 97 94 95 84 68 74 77 73 70 50 64 68 66
84 84 81 78 78 63 84 82 75 70 73 76 79 76 74 74 72 73 76 79 80 81 81 75 88 91 89 86 89 88 86 90 89 82 72 91 82 81 81 82 70 68 66
74 74 75 70 73 78 82 80 79 82 75 78 71 74 73 76 74 76 82 87 87 85 70 74 76 79 87 88 91 98 97 89 96 93 85 91 83 87 84 83 76 64 67
69 65 67 76 80 79 76 74 72 88 86 88 82 76 79 80 84 86 90 91 91 81 80 82 82 85 84 86 91 95 92 97 96 96 84 88 84 90 96 84 78 76 79

GFSMA_sfc_rhum_084.txt.gz
RH
80 81 82 81 76 74 77 80 66 54 50 49 48 46 56 68 71 81 95 80 80 69 60 58 60 60 57 54 53 52 50 52 52 51 51 52 53 53 53 54 54 54 55
93 85 79 77 76 76 78 74 63 55 51 47 47 46 51 67 67 76 87 92 81 76 66 57 57 55 52 54 51 51 53 53 52 54 52 53 59 59 56 58 56 54 55
89 82 82 84 80 80 79 76 63 60 56 47 46 48 48 58 68 72 84 89 88 77 73 64 60 58 56 56 55 44 40 46 48 48 50 53 62 60 62 58 56 60 66
90 93 93 85 85 82 81 75 67 63 62 57 55 55 52 47 49 72 76 81 82 82 79 76 64 52 50 45 34 36 40 41 43 46 49 53 56 58 58 55 54 52 52
90 92 93 88 86 82 77 64 65 61 64 64 58 60 60 54 46 50 70 70 73 82 82 78 69 63 51 42 35 34 39 42 45 45 48 52 54 55 55 54 54 54 54
94 95 93 93 85 75 72 67 64 71 68 68 47 54 65 62 57 57 56 49 57 70 68 72 70 64 64 47 41 40 40 37 39 42 46 48 50 51 53 53 53 53 52
89 95 95 92 83 70 69 66 69 70 75 76 72 77 80 79 66 62 60 57 56 57 64 64 62 63 68 60 49 48 47 44 41 41 44 45 46 48 49 50 51 51 51
86 92 90 89 74 73 73 75 72 77 76 80 77 80 74 69 71 63 67 62 62 59 58 57 58 58 66 71 68 55 47 48 47 48 50 47 47 46 46 48 50 51 51
89 90 86 87 78 70 70 75 74 72 81 83 76 75 82 74 75 68 70 74 66 70 63 58 59 57 60 66 70 73 66 58 53 52 52 53 52 48 45 48 51 52 52
93 92 85 82 78 81 79 73 70 78 81 80 84 72 73 73 72 68 64 63 65 62 68 72 70 64 63 70 67 76 77 74 65 55 55 55 52 49 47 49 50 52 54
95 95 92 88 92 82 78 74 80 81 82 85 81 81 73 77 73 69 69 65 64 64 62 68 66 60 58 67 74 78 80 79 74 62 58 56 55 52 50 49 52 53 51
95 94 89 89 84 82 81 70 72 84 84 82 76 70 68 67 69 74 74 73 67 62 59 59 55 57 60 64 64 73 82 81 77 70 62 58 56 54 53 53 56 53 51
97 94 92 93 86 82 81 75 80 81 80 73 73 73 70 62 61 64 67 72 75 73 63 62 59 61 55 67 68 75 80 85 81 75 67 61 58 57 56 56 56 53 52
88 86 90 93 90 86 87 90 89 90 94 96 94 90 86 76 66 64 64 75 81 78 76 62 65 62 61 61 62 72 89 86 84 79 74 69 64 61 60 60 55 55 52
87 94 94 94 92 90 89 89 94 97 96 96 96 96 91 86 87 73 68 70 77 82 82 73 72 61 63 66 64 70 89 83 86 82 78 75 73 65 64 62 59 58 54
93 96 96 95 94 92 92 92 94 95 94 97 94 92 94 92 82 83 78 80 80 80 85 75 71 70 63 51 59 67 79 78 83 84 82 80 78 74 72 68 64 61 56
96 96 97 96 94 90 89 91 94 97 93 91 92 94 92 85 84 84 84 82 80 83 86 78 80 73 72 69 64 68 74 80 85 81 86 84 82 82 76 75 75 71 59
98 97 96 93 90 87 92 92 94 90 90 92 93 91 87 75 78 79 87 85 86 86 90 88 84 82 78 74 74 72 59 59 70 72 85 84 82 81 80 78 77 77 69
99 96 94 92 88 91 92 91 88 91 93 91 84 83 77 76 82 82 81 83 85 73 89 93 89 89 84 80 75 71 71 74 64 67 76 83 85 83 79 70 78 76 73
96 95 93 89 92 90 91 90 92 94 93 87 82 78 75 73 70 70 71 77 76 86 89 92 92 92 90 84 84 83 81 86 80 59 64 69 73 71 73 76 79 77 77
95 92 93 93 92 91 90 92 89 90 87 78 69 60 62 64 71 73 67 78 83 87 90 92 93 93 93 92 90 88 88 86 92 91 92 93 93 83 77 74 72 75 74
98 96 95 94 95 88 100 98 90 84 72 60 63 62 57 67 81 85 82 81 78 82 86 93 93 95 88 94 94 92 86 95 92 96 92 93 78 73 65 70 61 66 69
96 96 95 94 94 89 95 92 83 66 63 66 67 70 70 62 76 73 76 78 78 78 88 90 94 94 91 93 94 92 88 87 86 88 91 85 81 78 67 52 66 69 71
95 95 95 93 94 84 90 86 79 74 82 79 77 77 78 77 76 82 84 85 83 82 81 76 81 81 90 92 95 91 91 92 92 92 84 92 85 80 78 78 68 67 71
95 94 90 87 84 86 87 86 82 79 75 80 76 76 77 81 80 80 90 92 85 80 70 77 78 78 79 82 84 94 91 82 88 91 84 81 90 87 86 85 81 69 69
74 72 74 77 80 79 85 81 74 86 87 81 77 75 78 81 83 84 88 92 95 89 90 90 86 88 84 81 86 89 90 95 86 88 93 97 86 89 95 90 83 80 76

GFSMA_sfc_rhum_087.txt.gz
RH
92 88 92 82 78 83 82 68 58 53 52 51 57 62 66 72 77 90 96 82 77 68 59 61 61 59 56 56 55 52 53 54 53 53 53 54 56 56 57 57 57 56 56
91 87 85 78 81 83 83 62 57 54 53 52 54 60 67 68 74 83 94 94 82 74 67 60 60 58 57 56 53 55 53 54 54 52 52 55 65 64 66 61 57 58 61
89 78 81 76 79 85 80 69 60 59 56 50 52 56 68 68 69 77 90 94 88 74 70 65 57 53 51 55 54 38 40 43 46 45 49 62 62 60 55 54 54 53 53
81 87 90 83 86 86 81 71 68 64 63 58 58 56 56 67 70 76 84 89 89 85 80 76 65 52 51 49 37 38 42 43 45 50 52 54 57 58 58 56 55 54 53
87 86 92 90 89 89 86 70 70 64 65 63 58 64 63 57 61 66 78 82 82 88 88 80 71 65 55 46 39 39 42 44 45 45 47 49 52 52 52 52 53 53 52
91 93 93 93 92 87 83 72 66 70 68 67 49 56 66 64 60 72 77 68 74 78 77 82 80 73 66 50 43 41 42 41 42 44 47 47 46 44 46 47 47 48 50
94 95 95 94 88 80 77 70 71 71 78 78 76 81 82 78 69 67 64 64 61 68 73 73 76 66 68 62 50 46 47 46 46 45 46 48 47 46 43 43 45 47 48
94 93 94 94 84 79 77 73 71 77 77 82 78 83 79 76 81 71 68 64 64 63 65 63 65 59 63 76 71 55 50 49 49 48 48 51 50 50 47 44 45 47 48
88 93 94 92 89 81 76 72 73 70 78 86 81 76 83 77 80 72 74 78 73 75 69 64 62 60 64 72 73 76 74 68 51 51 51 51 54 52 49 47 48 48 49
90 90 90 91 88 86 83 74 72 76 78 79 88 77 76 76 72 70 67 68 74 72 73 73 70 67 64 68 65 72 79 80 69 55 52 51 56 55 52 50 51 50 51
89 86 91 90 90 83 78 81 81 76 72 75 77 83 78 79 76 71 70 64 67 66 66 76 77 73 63 72 77 75 81 83 78 68 56 54 57 58 56 54 54 54 54
94 95 96 91 89 88 89 87 86 81 76 79 75 73 72 71 74 74 75 72 67 63 63 60 58 57 58 61 58 69 78 83 83 76 67 59 59 59 58 57 56 56 56
96 95 97 97 93 90 90 91 85 80 84 81 77 86 81 82 74 80 78 74 70 68 63 62 62 61 55 66 65 70 76 84 84 81 76 68 64 62 60 58 58 57 56
85 90 95 94 95 93 94 92 93 90 89 94 91 94 91 91 90 87 77 74 76 71 68 59 65 69 68 69 70 70 80 84 87 87 83 78 74 71 66 61 59 58 60
86 89 94 94 94 93 92 92 94 93 91 94 96 95 93 95 92 84 79 76 79 81 76 69 71 66 69 71 69 72 76 79 86 89 87 83 79 74 72 65 64 62 65
89 94 96 95 96 95 95 93 94 92 93 96 94 95 94 92 87 91 82 80 76 75 88 78 75 72 70 58 64 73 72 73 83 88 90 88 83 79 76 74 70 71 73
95 96 96 97 97 97 96 92 90 92 91 94 96 94 92 87 87 86 85 82 81 83 92 85 84 80 78 74 69 74 74 77 82 83 87 89 87 85 81 78 76 79 77
97 97 98 97 98 97 94 92 93 91 92 95 93 90 86 86 88 87 87 84 83 91 91 92 90 88 84 80 81 80 65 59 73 72 84 83 87 87 85 82 80 81 81
98 99 99 98 98 96 95 91 89 90 91 90 90 92 92 92 90 88 84 85 92 79 93 95 92 93 90 86 80 77 75 76 65 66 76 87 88 87 86 85 84 84 82
97 97 98 95 94 94 93 91 89 91 91 91 92 93 90 87 87 81 74 81 78 84 88 91 93 93 93 88 90 91 88 86 81 59 63 68 74 76 79 80 81 82 78
95 93 96 96 93 92 91 91 89 93 95 97 93 87 86 82 78 73 69 75 80 86 91 92 92 94 94 93 92 92 94 88 92 87 83 87 82 85 86 78 77 78 82
99 98 97 96 96 93 100 99 97 97 97 96 88 74 70 82 81 81 81 83 77 79 82 92 92 92 90 93 94 95 96 96 92 94 97 94 94 89 82 81 72 76 70
99 98 98 97 98 98 100 100 96 90 86 85 81 75 66 62 77 70 77 73 77 76 85 85 92 93 92 90 91 94 97 96 90 75 94 88 92 85 75 59 67 70 71
98 98 98 98 98 98 99 97 95 90 85 78 78 76 75 74 81 84 85 85 84 84 84 81 91 92 92 89 91 88 89 90 85 78 87 96 91 84 78 71 65 64 69
98 98 97 97 97 98 96 92 83 80 77 77 74 75 74 81 76 74 84 86 82 80 70 73 76 80 83 85 86 92 93 95 88 81 85 94 88 89 83 80 77 70 70
95 93 92 91 93 94 92 87 83 86 85 79 75 76 75 79 78 74 84 90 97 84 93 91 87 82 82 88 89 91 92 97 93 92 78 93 86 94 96 91 87 82 84

GFSMA_sfc_rhum_090.txt.gz
RH
90 90 91 86 79 83 69 61 55 58 62 63 62 62 70 78 84 88 91 81 74 64 60 61 60 58 57 56 55 55 56 53 56 55 55 62 61 62 65 63 60 57 62
91 87 80 77 78 76 68 56 52 57 61 63 66 67 67 71 80 91 93 86 80 74 66 60 61 59 56 54 56 54 55 56 53 54 53 65 62 59 56 55 55 54 54
93 84 76 74 76 81 71 57 61 60 60 57 66 69 69 70 75 88 92 89 84 80 74 69 61 54 56 56 53 42 44 48 47 47 62 62 62 62 59 58 55 54 54
88 91 86 76 80 81 67 63 61 62 63 61 64 69 72 69 70 79 91 90 87 79 75 73 66 55 54 54 41 43 45 46 49 53 55 55 56 57 56 54 52 51 51
87 85 89 82 83 84 73 63 71 65 64 62 58 63 67 70 72 68 82 85 84 86 87 81 72 66 59 48 41 42 46 48 50 49 50 50 51 50 48 47 46 47 48
87 91 91 88 86 88 85 73 68 70 66 65 47 57 67 64 64 79 78 73 77 82 81 86 79 72 67 53 44 42 44 46 45 47 48 48 48 46 45 43 43 44 45
85 86 89 91 90 83 82 74 73 71 73 74 73 75 76 73 69 66 77 78 73 72 78 76 77 70 70 67 51 46 48 48 46 48 49 48 48 48 47 45 44 43 43
89 86 84 92 89 87 86 79 73 77 76 80 75 79 74 74 80 74 69 70 73 66 72 70 74 69 64 69 73 57 50 50 52 50 49 51 52 51 49 48 47 46 46
95 91 89 91 91 88 84 79 80 73 78 84 81 75 83 79 81 76 78 73 71 73 70 69 69 66 65 67 69 75 78 73 53 46 47 51 54 55 54 52 50 50 50
90 94 95 94 92 90 89 83 83 83 78 78 86 80 77 75 73 71 70 71 78 74 75 74 70 68 67 68 68 73 78 81 78 64 53 48 48 53 57 56 54 54 53
90 92 94 96 96 88 84 84 83 83 88 79 78 83 75 74 74 72 71 66 66 68 74 75 76 75 71 71 72 71 77 81 81 71 64 55 49 50 55 58 57 57 55
95 94 95 94 91 92 91 91 88 86 84 85 73 79 77 73 75 70 71 70 66 64 61 60 72 69 64 66 62 69 77 81 83 78 69 64 59 54 54 55 57 56 56
95 94 97 98 96 95 93 89 89 88 88 87 85 82 80 79 82 86 86 89 90 81 66 65 61 59 54 64 65 70 72 80 82 81 77 71 66 62 60 55 52 52 52
86 92 96 94 94 94 93 91 91 92 90 92 89 90 88 89 87 88 89 90 88 79 71 62 61 64 62 64 66 69 73 82 86 84 84 82 79 77 74 68 60 56 56
90 94 94 94 94 95 94 94 94 94 94 94 91 89 88 92 87 87 83 77 82 85 75 66 63 62 65 70 70 74 78 73 81 86 89 88 85 82 80 78 74 66 63
94 94 95 94 94 97 96 96 96 94 93 94 91 90 89 91 90 90 82 75 76 80 85 70 67 65 66 58 67 76 74 71 78 83 85 89 89 86 84 82 78 75 69
91 92 91 93 96 98 97 96 96 97 96 93 91 92 91 92 91 89 86 83 77 80 84 77 74 74 76 74 69 73 74 75 76 81 85 86 88 90 88 85 82 79 76
89 91 93 96 97 98 98 98 98 98 96 92 90 91 90 91 92 88 88 90 84 83 83 83 80 83 81 78 77 78 66 58 68 67 78 84 85 88 89 88 86 84 82
91 96 95 96 96 96 98 98 96 96 93 89 90 93 92 93 93 97 94 90 88 82 87 88 87 87 84 82 76 75 73 72 61 63 73 77 78 82 87 90 89 88 86
92 96 97 97 95 96 97 96 96 95 94 94 94 93 90 91 91 94 93 92 89 89 86 90 88 83 82 79 81 81 80 78 74 60 65 70 74 73 76 78 83 85 84
94 94 95 98 97 96 96 97 95 95 96 96 97 98 98 97 95 90 87 89 86 79 79 83 84 86 84 80 79 80 82 81 81 81 76 78 77 77 78 79 76 81 78
97 96 98 97 98 97 100 100 97 95 95 98 99 96 95 94 94 93 87 83 80 79 78 80 80 81 76 79 82 85 88 90 89 80 87 84 79 75 76 76 78 79 81
99 99 99 99 98 97 100 100 100 98 98 98 94 91 86 83 83 78 79 75 77 75 81 77 83 80 83 80 83 86 87 87 84 73 82 80 75 79 73 67 74 76 78
99 99 99 99 99 98 99 99 98 97 97 96 94 92 88 83 82 80 78 77 77 76 74 74 83 84 85 84 86 84 87 88 80 72 80 96 75 76 75 76 75 72 74
98 98 97 98 97 98 97 95 92 93 92 90 85 81 80 85 83 82 82 79 76 76 73 75 77 79 79 81 84 92 91 97 90 76 75 87 80 79 77 77 73 74 73
95 93 95 95 95 96 94 91 85 85 86 88 90 94 96 92 83 74 80 82 90 85 81 80 75 75 74 83 83 91 96 98 89 88 75 90 79 83 91 82 79 76 72

GFSMA_sfc_rhum_096.txt.gz
RH
69 56 48 46 46 44 48 49 46 48 47 44 42 43 42 41 42 36 43 79 75 66 61 61 60 60 59 59 58 57 58 57 56 60 62 62 63 58 58 56 56 56 56
71 59 49 44 45 45 44 45 46 41 39 40 43 42 42 40 41 41 39 51 78 73 65 60 59 59 58 57 58 57 57 57 56 62 63 64 58 58 57 56 55 54 54
71 64 54 44 41 43 50 46 45 38 33 30 34 34 35 41 40 44 39 42 54 79 74 69 61 59 57 57 55 56 57 56 56 60 62 60 58 60 55 54 51 51 51
68 62 48 46 41 44 44 43 40 36 35 31 32 31 32 35 42 46 41 40 42 42 73 76 70 63 59 59 51 50 52 52 52 64 63 62 60 58 54 49 48 48 48
68 51 50 47 49 44 43 42 40 41 40 34 31 32 34 33 41 40 46 48 46 44 42 77 78 74 70 61 50 51 52 52 53 56 58 57 55 52 49 46 45 45 44
70 61 56 55 47 42 44 41 45 41 39 36 27 32 37 35 37 43 46 47 47 47 43 46 50 47 74 65 52 52 52 52 55 54 53 53 52 50 48 46 45 44 42
66 65 52 57 49 47 47 50 47 49 44 42 36 38 41 45 46 39 44 48 49 46 41 38 36 31 41 71 59 51 54 55 55 54 54 53 53 52 50 49 48 46 44
66 62 56 59 54 48 54 55 53 49 49 52 50 39 44 40 39 40 37 40 45 36 36 40 40 37 32 33 44 60 54 54 55 54 56 58 57 55 54 52 51 50 50
68 64 53 54 55 51 54 57 56 56 53 56 50 43 46 47 39 36 43 38 44 43 37 37 39 38 37 32 43 53 72 70 58 56 56 58 60 59 58 57 55 54 54
83 71 58 55 60 56 59 60 54 56 53 54 53 47 53 49 47 53 44 42 40 46 47 38 36 43 41 35 45 55 72 76 77 66 59 58 56 61 61 61 61 60 59
79 80 78 77 66 61 66 65 64 63 54 52 51 54 53 50 49 56 55 47 44 40 37 43 48 51 43 45 48 50 71 82 79 75 69 64 60 58 56 58 63 63 62
68 71 72 75 73 62 61 63 65 69 67 64 55 63 58 60 52 56 83 89 84 54 51 60 57 47 46 59 57 65 76 80 81 77 71 67 62 60 60 56 54 53 54
71 76 73 80 71 64 59 61 66 69 69 70 74 66 75 70 67 62 74 91 94 71 53 53 56 47 53 64 62 71 76 82 83 82 79 75 71 67 63 60 56 53 52
54 57 59 58 68 69 65 66 70 65 67 71 74 72 73 72 77 81 81 93 93 80 54 65 47 51 55 54 66 78 59 84 84 83 80 77 75 72 69 65 57 54 50
48 56 58 59 57 58 59 63 62 64 66 71 72 78 81 80 79 71 86 87 88 90 75 62 60 52 44 46 49 51 46 62 80 82 82 80 76 73 73 73 74 73 66
50 50 54 57 56 56 57 60 61 60 64 66 66 69 73 76 72 75 82 81 77 84 89 72 64 58 47 36 44 45 40 64 78 80 82 83 82 81 80 80 79 79 78
54 55 54 55 56 56 55 59 61 60 62 65 67 76 80 81 89 91 91 89 94 95 95 84 78 54 52 51 40 45 43 51 58 82 84 84 85 86 86 87 87 87 86
56 56 56 54 52 52 55 59 66 65 72 73 86 90 92 92 94 94 95 94 94 91 94 95 87 76 57 69 64 59 54 44 49 64 83 84 83 84 84 85 86 86 88
59 57 57 58 56 57 57 60 70 80 83 83 84 90 92 92 96 95 96 95 91 90 93 95 90 71 76 86 84 77 75 64 43 66 73 76 79 79 80 81 82 84 84
61 58 57 56 58 54 53 58 70 77 76 78 84 93 92 93 95 93 96 94 93 96 95 96 96 96 95 94 91 92 90 80 68 46 50 59 63 66 73 76 77 78 78
60 58 57 56 57 58 61 67 77 88 93 94 95 96 96 95 98 97 96 96 97 99 99 99 99 99 98 98 96 95 95 86 79 63 54 42 38 37 42 67 64 69 75
58 58 60 61 67 82 100 100 100 97 99 99 99 98 95 97 97 99 98 98 98 98 99 99 99 99 100 100 99 99 98 97 92 52 48 52 40 41 42 42 57 68 69
72 77 84 89 97 94 99 100 100 98 97 97 98 97 94 92 94 93 97 96 98 98 98 97 100 100 100 100 98 95 91 76 69 57 52 51 46 51 46 37 66 68 70
96 96 96 94 94 93 97 97 95 93 94 93 93 92 94 95 97 95 92 93 96 98 99 99 100 98 93 81 75 76 82 83 68 51 52 76 52 53 52 46 62 70 74
94 94 92 93 94 94 93 93 88 89 90 92 90 90 88 91 94 91 93 95 95 95 97 98 98 98 98 97 94 89 86 78 77 59 54 69 65 60 54 55 48 67 74
92 91 92 91 93 92 92 89 84 87 88 88 87 89 92 90 92 93 92 94 94 91 88 89 88 87 84 70 77 71 73 91 86 85 61 86 66 65 80 50 49 48 47

GFSMA_sfc_rhum_099.txt.gz
RH
83 76 57 54 52 49 51 51 44 42 43 40 39 41 39 36 38 38 48 78 75 67 61 61 61 61 61 61 61 61 60 60 61 62 62 63 61 59 57 56 57 56 55
76 64 61 51 48 46 45 45 43 43 43 39 42 40 38 37 37 41 43 55 78 73 67 60 59 59 60 60 59 59 60 57 58 64 63 64 58 60 57 55 54 53 53
67 64 60 51 46 46 52 46 46 43 38 35 39 38 37 39 37 39 42 47 57 80 74 69 64 60 59 59 60 58 60 59 57 64 64 62 60 60 56 53 52 51 51
66 68 68 65 52 52 47 44 45 39 37 33 34 32 34 37 39 41 38 41 45 44 73 75 72 66 61 60 57 59 58 58 58 63 63 62 61 61 58 52 50 49 48
80 70 72 64 56 48 48 46 44 44 39 33 31 32 33 33 40 36 40 42 45 44 46 76 78 76 70 64 60 55 56 56 56 64 64 64 60 57 53 50 49 48 46
82 73 67 66 46 45 48 46 51 41 40 37 27 31 36 33 36 39 42 40 42 47 45 54 62 61 80 70 64 54 54 56 55 60 60 58 56 53 51 49 48 47 45
78 74 55 59 54 47 54 61 49 53 44 42 36 37 39 39 41 38 43 44 46 47 48 44 51 47 55 76 69 56 57 56 57 58 57 56 56 54 52 51 50 49 48
83 81 72 64 58 55 61 59 57 49 45 45 43 42 48 44 42 44 41 47 57 46 46 47 46 47 40 43 57 66 58 58 58 59 58 57 57 57 55 54 53 52 51
84 74 72 66 63 59 59 62 60 56 53 52 60 45 49 49 43 42 51 45 50 51 45 43 44 44 43 38 49 58 69 69 63 60 60 60 60 60 60 59 58 56 56
80 75 67 65 66 55 62 65 58 60 55 57 55 46 52 53 54 60 47 49 49 47 54 46 41 44 44 42 50 55 70 73 73 67 66 62 63 63 64 63 62 61 59
82 70 62 64 64 61 62 65 65 67 62 58 55 53 61 57 64 59 62 59 46 42 42 47 49 44 44 45 45 53 75 69 69 72 70 69 68 69 69 65 65 64 63
93 87 69 66 68 65 68 73 72 67 65 61 59 58 56 59 60 69 68 76 85 79 58 55 57 50 46 50 51 58 73 78 74 71 71 72 72 70 66 64 64 66 66
86 88 86 83 74 68 66 70 77 74 72 72 70 68 67 62 63 76 87 87 87 83 90 80 69 62 49 51 49 64 72 78 77 76 76 74 74 73 72 68 63 61 60
68 76 72 70 70 69 73 71 74 70 71 80 76 73 67 65 68 71 72 86 89 80 79 81 67 73 72 60 54 73 58 79 80 78 76 74 73 73 74 73 72 70 66
60 68 69 64 63 67 68 70 61 64 69 74 81 80 76 72 71 70 70 75 83 90 82 72 72 67 68 77 84 74 66 65 78 80 81 80 77 76 76 76 74 70 65
55 59 64 63 61 61 61 62 61 64 70 73 74 74 70 65 65 68 71 76 80 88 94 81 85 80 80 77 83 80 74 74 79 81 81 78 76 75 75 75 75 75 74
54 54 56 56 56 58 58 61 64 63 63 63 62 65 66 65 73 79 89 91 90 92 96 85 82 85 88 92 83 80 75 61 57 79 78 76 77 78 81 82 82 82 80
57 54 54 50 52 53 57 59 61 57 60 62 63 66 67 72 89 91 88 91 95 92 97 95 87 92 95 91 87 77 66 49 49 67 77 79 82 84 86 88 88 88 88
57 54 53 56 55 56 55 57 58 58 60 61 63 66 72 87 89 89 91 96 95 96 95 97 93 91 93 94 89 87 85 76 62 80 86 87 86 85 84 84 84 85 85
55 53 55 55 57 52 50 51 50 56 60 61 72 78 79 88 93 96 95 96 96 98 97 98 97 98 98 98 98 98 98 98 98 86 91 89 83 79 80 80 81 81 80
55 53 55 54 54 52 49 54 56 66 73 81 85 96 97 97 98 98 97 98 99 99 99 99 99 99 99 99 99 99 99 99 98 96 95 91 83 80 76 73 71 71 73
56 57 56 56 62 79 98 100 99 97 97 98 98 96 93 94 94 95 95 96 98 99 99 99 99 99 99 99 99 99 99 100 100 95 98 97 84 82 75 63 63 70 71
68 87 92 92 93 92 97 98 96 94 95 95 96 95 92 91 93 89 91 90 92 94 98 98 99 99 100 100 100 100 100 99 98 93 98 95 85 89 71 45 65 68 72
94 94 94 93 94 93 95 94 93 92 94 92 91 88 91 94 94 86 86 91 94 96 98 98 99 100 99 99 98 98 99 99 97 96 97 98 82 80 62 54 63 69 67
94 94 92 93 94 95 93 92 87 88 89 91 89 88 86 89 89 88 90 91 89 93 92 95 98 98 97 97 97 96 96 96 92 88 90 99 87 84 74 70 62 66 70
92 91 92 92 93 93 92 88 83 86 88 87 83 85 89 87 86 87 90 92 92 91 86 84 85 81 86 84 92 84 90 94 91 88 81 95 92 95 91 70 70 65 63

GFSMA_sfc_rhum_102.txt.gz
RH
87 90 85 78 64 63 64 64 61 60 58 57 59 54 54 51 58 63 74 80 76 69 63 63 63 62 63 63 63 62 62 62 63 63 64 63 63 60 60 58 58 58 56
87 83 76 74 68 62 61 60 58 58 64 59 62 57 53 54 54 63 69 81 79 74 68 62 62 61 62 62 63 63 62 62 62 62 63 63 62 60 58 57 57 56 55
84 75 71 80 67 62 67 62 62 66 65 54 59 61 57 56 52 58 64 69 80 80 75 70 65 61 61 62 62 62 62 60 60 64 64 64 60 60 57 56 54 54 54
78 73 69 67 62 63 63 61 62 67 66 62 63 61 60 57 59 59 58 62 67 63 79 77 74 70 64 62 62 60 60 62 60 64 65 64 62 62 59 56 55 53 54
90 74 66 84 73 60 64 68 70 66 66 60 55 60 61 61 62 49 57 58 64 62 68 79 80 78 73 65 61 60 60 60 61 61 65 64 62 64 61 55 52 52 51
90 83 78 78 82 78 70 65 66 65 63 61 33 48 61 60 61 69 62 55 60 66 65 66 74 74 81 73 66 62 60 60 59 60 64 64 64 63 60 54 52 51 50
86 83 71 75 74 71 82 71 71 68 68 65 66 68 64 60 64 64 67 68 63 65 70 74 71 69 71 78 72 66 59 58 59 58 63 65 63 61 58 54 52 51 50
84 75 72 76 67 73 73 72 71 74 71 68 68 69 76 68 64 63 67 68 72 66 65 64 68 66 63 70 74 74 64 60 60 60 60 65 62 60 58 56 54 53 53
83 82 79 80 74 68 77 74 75 70 75 71 66 71 74 74 72 70 67 69 68 78 71 64 60 60 61 64 71 75 78 72 66 63 63 68 67 61 60 58 57 57 57
87 86 87 82 81 77 76 77 73 74 73 75 73 67 72 76 84 81 68 68 70 66 72 68 58 54 52 58 64 67 76 77 72 70 69 69 70 66 63 63 62 62 61
88 87 89 81 77 76 82 81 82 77 78 72 72 75 75 78 83 85 84 74 63 55 59 62 58 61 54 54 52 62 70 77 74 71 72 71 71 71 71 69 66 66 65
92 91 82 88 87 86 86 83 80 79 83 80 73 74 78 81 80 86 91 86 88 79 53 55 67 58 56 59 56 61 77 72 75 71 70 72 72 72 72 73 74 68 67
93 91 86 93 91 84 79 85 87 86 86 86 83 86 84 79 81 84 90 92 94 93 90 89 72 60 58 61 60 68 72 82 76 71 70 69 71 73 73 73 73 74 74
85 83 84 82 80 73 80 83 82 88 90 92 88 86 85 89 88 87 89 94 95 93 95 90 84 72 65 62 66 75 62 78 84 79 74 73 71 72 73 75 75 74 73
85 86 81 81 87 82 83 85 82 85 85 86 89 89 83 84 94 91 88 86 90 94 88 79 82 70 74 74 76 76 73 73 84 84 84 82 77 75 74 74 75 75 74
73 84 82 79 76 73 74 80 77 77 82 86 88 88 87 86 88 90 86 86 87 90 94 77 76 74 84 78 77 81 78 82 89 89 88 86 83 78 76 76 74 75 76
72 76 78 76 73 72 74 75 74 73 73 77 81 84 83 82 87 87 88 89 91 93 95 84 79 82 88 91 80 81 83 85 86 93 92 88 86 84 80 81 81 81 79
71 68 72 72 69 69 70 71 76 70 77 79 79 82 81 80 86 86 88 92 94 92 96 95 90 91 92 92 88 89 87 78 80 82 90 91 88 86 88 92 92 92 92
70 66 66 69 68 68 68 72 72 73 73 74 75 78 79 86 89 95 97 96 94 95 98 98 96 90 96 99 98 98 96 96 80 94 95 92 89 91 92 93 93 93 93
72 70 71 70 70 67 64 65 63 69 72 73 83 95 96 97 98 98 98 98 98 99 98 98 98 98 99 97 98 99 98 98 97 91 96 96 94 92 91 92 93 92 93
67 66 68 67 67 67 71 91 83 82 95 96 95 91 94 94 95 96 93 97 97 99 99 99 99 98 99 98 99 99 99 99 98 99 98 97 96 95 95 93 92 91 92
70 72 74 85 86 86 99 100 95 94 93 94 96 96 94 94 93 93 93 94 97 98 99 99 99 99 99 100 99 100 100 99 99 98 99 99 99 98 96 88 85 92 92
87 91 91 92 95 94 96 95 94 93 94 95 95 94 92 91 92 89 92 91 94 95 99 98 99 99 99 99 99 99 99 99 99 99 99 98 97 98 93 77 83 84 87
94 94 94 93 94 93 93 93 92 90 93 94 94 92 93 94 94 92 90 92 96 96 96 97 98 99 99 99 99 99 99 98 97 96 98 98 93 92 91 86 81 81 76
94 94 92 93 94 96 93 91 87 89 91 95 92 92 89 90 86 87 91 94 94 94 89 87 90 90 89 90 92 96 95 95 93 90 96 98 98 97 97 96 88 75 75
92 91 93 93 92 94 93 89 85 87 90 90 87 85 84 85 85 88 86 88 90 91 90 86 82 79 77 81 90 98 98 95 93 93 96 93 90 95 94 91 83 74 76

GFSMA_sfc_rhum_105.txt.gz
RH
93 87 88 85 80 82 80 73 73 59 62 59 61 63 62 70 72 74 84 81 77 69 64 64 65 65 65 65 65 65 65 64 64 64 64 64 64 64 62 60 62 59 56
87 83 81 75 74 74 70 63 70 74 70 65 67 62 63 69 70 76 80 81 80 76 69 64 64 64 65 65 64 64 64 63 63 63 64 64 61 60 59 59 58 57 55
86 84 78 72 70 68 66 75 73 77 74 66 64 65 64 68 71 72 76 83 81 81 78 72 67 64 64 64 65 64 63 63 63 64 64 64 62 60 59 57 58 56 55
88 86 80 69 73 67 66 75 77 75 73 70 72 71 67 66 71 72 73 76 81 73 80 80 75 70 66 64 63 63 64 62 61 63 65 66 63 63 60 58 56 56 56
91 86 84 78 76 67 72 75 82 70 68 73 68 71 71 74 71 66 72 73 78 77 82 82 82 79 75 69 64 63 61 62 64 62 67 66 66 64 63 60 57 56 56
85 89 86 81 85 71 82 90 70 68 65 67 47 59 71 71 73 74 71 67 73 74 76 76 82 80 82 75 66 64 62 62 63 64 64 67 66 65 66 64 58 56 55
86 89 80 83 84 74 85 79 66 64 69 67 70 71 72 68 70 73 77 71 72 72 76 77 78 77 76 79 74 65 64 62 63 62 63 64 67 67 66 65 60 57 56
88 85 75 79 78 85 86 79 67 78 70 79 66 73 75 67 69 68 75 77 78 74 73 74 74 76 74 76 78 75 66 65 62 62 64 68 72 72 68 65 61 57 56
88 81 78 75 78 85 79 81 66 74 78 82 56 70 79 75 78 75 70 74 80 87 79 70 74 73 73 75 76 77 80 76 72 66 68 70 71 74 73 66 62 59 58
87 82 78 75 76 82 81 81 73 75 74 73 74 68 73 76 83 81 78 77 76 74 84 82 73 72 71 70 75 78 83 84 80 74 71 71 71 72 74 71 65 62 60
88 82 84 80 83 80 77 74 85 85 78 80 76 76 78 86 89 90 87 79 79 74 73 74 72 73 62 63 69 72 84 84 83 78 73 73 73 73 74 73 72 68 64
92 84 87 88 89 90 88 87 87 87 91 85 73 75 79 81 83 92 93 92 86 82 64 70 71 66 69 68 61 67 78 80 81 81 76 72 73 74 74 75 74 73 71
96 95 90 92 96 96 94 91 90 89 89 93 84 81 83 80 84 86 90 92 93 93 91 84 66 67 63 64 66 73 73 82 80 78 78 75 72 73 77 76 76 76 75
94 94 92 91 98 96 95 95 93 91 91 91 92 93 90 82 85 89 91 94 96 96 97 88 93 72 66 63 67 76 72 81 86 84 80 80 77 76 77 81 80 80 79
90 93 91 89 95 94 92 89 86 87 89 92 88 90 88 89 93 91 91 89 88 94 87 90 91 79 73 78 76 75 71 76 87 89 88 85 85 85 84 84 81 82 84
82 89 86 82 85 88 84 83 81 82 84 85 84 86 86 84 90 95 92 91 92 90 93 81 82 85 90 85 85 88 87 86 86 87 89 89 87 85 87 86 83 86 84
81 85 80 79 81 85 81 80 78 80 84 84 89 91 88 88 93 95 96 92 94 94 96 83 84 82 93 96 94 91 86 86 86 91 92 91 90 90 89 89 91 91 91
83 85 81 79 79 74 78 82 85 77 83 84 86 87 88 89 93 90 93 94 95 93 96 94 85 90 99 97 96 94 90 81 81 84 92 94 95 95 94 94 95 96 96
81 82 83 82 80 79 78 82 80 80 82 85 87 90 93 96 97 98 98 98 98 98 99 99 99 98 99 98 98 97 96 94 88 94 94 95 92 92 92 94 95 95 96
82 78 81 82 81 78 75 75 74 79 83 94 95 93 91 92 94 96 94 96 96 99 99 99 99 99 98 96 96 99 96 96 95 87 95 98 95 92 92 93 94 94 95
80 78 82 77 77 77 79 85 87 92 94 94 93 90 93 92 93 94 92 96 96 97 97 98 99 98 99 98 99 98 98 97 95 98 96 95 96 96 97 96 94 94 95
80 83 89 88 90 87 98 99 94 94 92 93 97 96 95 93 94 96 96 96 96 97 98 99 98 98 98 98 98 98 98 98 98 98 97 96 93 96 96 96 91 93 93
88 91 92 92 96 95 95 94 93 92 94 94 95 94 94 97 99 97 99 92 92 92 98 98 98 99 99 98 97 95 94 92 97 91 96 91 96 95 88 76 83 87 91
95 95 96 94 95 94 94 93 92 91 93 94 95 95 95 97 99 100 97 95 95 95 95 95 98 98 97 90 99 97 99 96 90 91 88 97 90 87 80 74 76 82 94
95 95 93 94 95 96 92 89 87 90 94 95 94 95 95 97 91 78 85 86 89 92 80 78 79 82 92 91 80 85 91 91 90 80 90 86 87 80 75 78 84 68 60
93 92 95 95 95 96 93 89 86 89 93 93 95 94 88 82 78 77 87 90 94 96 87 84 86 81 75 74 76 82 88 95 92 92 87 94 82 84 88 79 71 68 69

GFSMA_sfc_rhum_108.txt.gz
RH
95 92 87 88 91 94 89 84 73 71 67 67 71 68 75 79 81 79 85 83 79 70 65 64 65 66 66 66 65 65 64 63 64 65 65 65 65 66 64 62 63 60 58
95 91 88 91 91 84 80 73 80 71 68 66 72 72 76 79 80 84 84 83 82 77 70 65 65 65 66 66 66 66 65 64 64 64 65 66 66 67 62 62 62 58 58
96 89 89 86 83 80 79 80 83 74 69 67 73 75 77 79 82 82 87 89 84 83 80 73 68 66 66 66 66 66 65 65 65 65 65 66 65 62 61 61 60 59 57
92 87 81 78 78 79 68 73 83 81 74 76 79 80 80 81 82 83 82 86 90 78 82 80 75 72 68 66 66 66 66 66 66 66 66 66 67 65 63 61 60 59 58
89 85 78 73 76 72 65 74 83 77 74 80 73 83 84 85 83 75 81 85 89 87 89 84 83 80 76 71 66 66 65 66 65 65 66 68 68 66 66 63 61 60 60
87 86 80 75 77 71 70 80 73 81 71 77 57 69 78 82 81 82 80 77 84 86 88 87 86 81 83 76 69 66 65 64 65 67 65 67 69 69 67 68 65 61 60
90 89 77 80 76 69 73 79 77 72 81 74 73 74 75 78 85 79 80 82 85 84 90 87 88 89 82 82 77 68 66 65 65 66 67 67 69 73 74 69 69 65 60
89 86 79 74 76 74 79 81 72 75 74 70 73 75 74 69 74 79 86 80 86 80 82 82 84 86 84 83 81 77 69 65 65 65 69 72 73 74 76 73 69 69 64
87 85 81 74 75 78 86 77 70 63 63 80 62 73 80 75 76 71 78 89 89 94 84 80 80 78 79 80 81 81 82 79 72 70 71 72 74 74 75 78 74 70 68
89 84 82 80 79 80 79 77 66 71 64 64 82 73 75 72 80 75 75 75 83 88 87 86 80 77 76 78 79 81 84 87 82 77 74 74 73 75 74 76 78 76 72
88 85 83 85 86 84 85 76 82 85 82 77 72 83 80 84 90 78 79 73 80 79 81 85 81 82 79 79 78 78 85 86 86 82 78 76 75 74 76 75 77 78 76
95 90 87 88 89 88 87 92 94 90 94 87 83 76 78 78 83 88 93 89 84 81 79 79 82 79 78 77 75 78 84 87 87 84 83 81 79 75 74 76 78 77 78
97 97 94 94 94 93 94 95 95 96 95 94 89 87 82 78 79 86 87 90 93 92 92 85 71 66 64 74 73 77 78 85 85 86 84 83 82 81 77 74 78 79 80
95 96 94 91 92 93 94 94 96 97 97 97 95 93 89 89 84 83 84 89 94 96 96 89 92 75 70 70 70 78 74 81 83 85 84 82 82 83 82 80 81 79 80
95 94 95 97 96 95 95 95 96 95 95 95 93 93 92 92 94 93 90 87 84 88 86 90 95 87 76 73 71 71 68 76 84 86 87 87 84 83 83 84 83 80 80
95 96 95 94 96 96 96 95 96 95 94 90 89 93 94 89 93 96 91 91 92 87 89 71 80 90 91 85 85 86 86 90 92 92 91 91 90 89 88 87 86 85 84
94 95 94 96 94 96 96 96 93 88 88 83 81 82 81 83 89 89 93 92 93 94 94 84 81 81 94 93 95 96 98 98 95 96 96 96 95 94 93 92 92 91 91
88 87 87 92 89 87 91 89 87 82 86 84 86 89 90 88 92 90 97 96 96 94 96 96 90 96 99 97 94 94 88 75 82 89 96 95 94 94 95 97 97 96 95
89 87 85 84 84 84 88 86 84 84 88 85 86 90 92 95 97 98 97 98 98 95 99 99 99 97 98 93 94 91 89 89 79 81 90 96 95 94 94 94 94 95 96
91 89 86 83 81 83 80 81 84 90 91 94 93 92 92 94 96 95 93 96 95 97 96 97 98 98 96 94 95 97 95 93 92 86 84 87 86 83 86 90 92 92 94
87 90 90 88 84 82 82 84 84 89 94 94 93 91 93 92 93 93 91 95 94 95 96 96 98 99 98 98 98 97 98 93 92 96 89 88 86 86 82 79 81 83 88
93 92 94 90 92 90 100 99 94 94 93 95 97 96 95 94 97 98 94 95 96 96 98 98 98 98 98 98 95 93 91 94 96 90 89 87 94 95 87 70 68 74 84
90 92 93 94 97 96 96 95 94 94 95 95 95 96 97 98 98 94 98 96 97 98 98 95 98 99 97 98 95 90 92 97 98 94 90 91 94 92 68 53 60 67 66
96 96 96 95 96 95 95 94 92 91 94 95 96 96 96 98 99 98 96 96 97 92 92 95 98 96 92 86 89 90 95 94 86 87 88 100 86 80 70 65 60 65 60
96 96 94 94 96 97 92 91 88 90 93 96 95 95 95 96 93 90 94 91 83 86 82 77 76 72 69 69 74 86 89 90 90 79 87 86 84 81 71 76 75 57 54
95 94 96 94 94 96 90 86 84 86 92 93 94 96 95 96 93 91 88 86 93 95 88 79 75 70 68 68 70 79 84 92 88 92 84 80 70 75 82 69 62 63 68

GFSMA_sfc_rhum_111.txt.gz
RH
96 93 92 89 96 98 96 90 83 70 71 73 76 76 81 87 90 94 97 82 78 71 66 66 66 66 66 65 65 64 63 63 63 64 65 66 65 65 66 64 63 62 60
94 95 95 88 95 91 91 80 72 71 72 78 79 78 83 89 90 94 96 89 82 78 72 66 65 66 65 65 66 65 64 64 64 65 65 66 66 68 65 64 65 61 60
94 94 92 92 93 90 86 81 81 77 74 76 81 82 82 88 90 91 93 95 89 83 80 73 69 66 65 66 66 66 66 66 65 65 66 66 67 68 66 63 64 61 60
89 90 91 92 90 86 79 75 80 76 82 77 86 86 89 89 91 93 92 93 95 88 86 81 76 72 68 66 66 66 66 66 66 66 66 67 68 67 66 65 64 62 61
90 89 89 88 85 78 74 73 92 71 80 80 79 90 96 96 91 82 90 92 92 91 93 87 82 82 78 70 67 67 66 66 67 67 67 68 68 69 68 66 65 62 62
91 90 86 87 79 71 72 80 79 87 84 77 68 86 97 97 94 91 84 83 91 90 92 91 94 90 84 79 71 68 67 66 67 67 67 67 69 70 71 70 68 64 62
94 91 80 83 75 65 70 77 80 77 90 80 80 84 85 93 94 93 94 93 92 91 92 93 97 97 91 84 79 70 68 66 66 66 68 70 70 75 77 75 71 70 67
92 88 79 80 71 66 76 80 74 91 86 76 78 78 88 78 84 87 93 87 93 92 90 91 93 94 94 93 87 80 71 67 66 66 71 74 76 77 77 78 75 72 71
92 86 79 76 70 68 69 79 77 72 75 82 68 76 78 79 81 82 86 91 89 95 90 89 89 86 89 89 85 84 87 84 76 70 73 74 76 77 77 77 78 78 75
95 92 82 75 70 72 66 73 74 73 76 73 81 70 69 71 80 76 77 85 89 88 93 95 85 83 81 84 84 84 87 89 85 81 77 76 76 76 78 79 78 79 80
92 92 86 78 78 73 79 74 81 86 73 68 70 84 84 88 84 75 79 77 79 79 84 87 86 87 82 80 82 83 88 89 88 85 82 80 78 76 77 78 78 79 78
93 91 90 88 86 83 85 83 86 84 86 82 82 77 82 80 86 87 86 86 81 78 69 73 90 88 86 86 81 82 87 88 88 86 84 83 82 80 79 78 77 77 78
98 93 92 92 91 90 91 88 88 89 87 86 91 88 84 78 82 85 88 91 90 86 86 85 73 72 74 85 82 85 85 89 90 88 86 86 85 84 84 81 79 78 76
96 96 92 92 91 92 92 90 91 94 96 95 97 96 95 92 89 85 84 91 95 92 91 85 86 81 75 76 76 82 78 84 87 88 87 87 87 87 86 86 84 82 81
95 96 94 95 96 95 94 94 96 98 98 98 96 98 98 97 97 93 90 87 89 94 79 79 92 88 85 82 78 76 73 77 87 92 93 93 90 90 89 88 87 87 87
95 96 96 94 95 96 95 95 97 98 98 98 98 97 96 95 97 97 94 93 94 90 93 77 83 90 90 89 91 92 92 94 99 97 95 95 94 93 92 93 93 93 92
96 97 96 96 96 96 96 97 96 96 96 98 97 96 92 89 94 96 97 97 97 96 96 82 90 91 96 96 92 92 89 91 91 93 96 96 95 94 93 92 91 90 90
95 96 97 96 95 95 95 95 96 96 97 98 96 94 90 88 94 94 98 97 98 97 98 97 96 98 96 92 93 91 87 74 79 87 90 86 85 85 89 90 91 91 92
92 92 93 96 96 95 95 94 94 90 90 89 91 94 95 94 98 98 97 97 97 94 97 99 99 96 96 93 92 90 90 87 76 81 76 78 79 78 79 79 81 80 80
93 90 90 92 93 93 94 92 89 92 94 94 94 93 92 93 95 95 94 96 95 96 94 96 97 97 97 98 94 94 91 85 86 76 72 76 70 79 78 70 69 66 78
95 93 91 89 90 90 91 93 94 95 94 95 94 91 93 93 93 93 92 96 95 96 96 97 97 96 95 95 96 92 89 88 88 87 82 78 86 89 78 69 62 61 64
97 97 96 93 94 93 100 100 96 95 94 95 97 96 94 93 92 93 92 94 95 95 97 95 96 96 97 97 93 94 91 90 95 90 88 80 92 87 73 57 57 58 65
92 95 95 96 98 98 97 96 95 95 95 95 96 96 96 96 93 93 94 94 97 93 96 95 96 97 96 95 92 92 93 92 88 85 89 87 89 83 65 51 59 64 63
97 98 98 97 97 97 96 95 94 93 96 96 96 96 97 97 96 94 92 94 94 95 93 88 89 88 86 84 85 85 90 88 78 82 78 100 80 72 62 59 59 63 61
97 97 96 96 97 98 94 92 90 92 94 96 95 93 94 96 95 91 91 93 92 86 70 70 70 69 65 65 69 80 82 85 84 64 82 81 75 74 66 68 68 58 58
97 95 97 96 94 96 92 90 87 88 93 94 94 97 94 94 91 86 88 87 88 82 76 74 72 66 63 62 69 74 80 93 89 91 82 85 75 78 89 68 61 61 53

GFSMA_sfc_rhum_114.txt.gz
RH
95 94 95 95 88 89 89 93 83 81 81 79 80 80 82 84 86 89 91 82 79 72 65 65 65 65 65 63 64 64 62 62 62 63 64 64 65 64 66 64 64 63 61
95 96 96 94 94 87 90 84 78 79 78 80 84 81 84 90 92 94 92 87 82 78 72 65 64 64 65 66 66 65 65 64 64 64 65 66 66 67 67 65 65 63 61
94 94 94 92 94 91 92 82 82 83 83 82 87 89 88 92 92 93 92 91 85 84 79 74 69 66 65 66 67 66 65 65 64 65 65 66 66 68 68 65 66 64 61
91 93 95 96 94 90 85 78 76 85 89 85 94 93 93 93 94 94 92 92 91 84 84 80 76 73 69 67 67 67 66 66 66 65 66 66 67 68 69 68 66 64 63
95 91 92 95 92 88 84 79 79 75 87 90 87 96 96 94 93 87 92 91 90 89 89 85 81 80 77 70 67 66 66 65 66 66 67 68 68 69 70 68 67 66 65
98 92 94 94 88 86 82 78 75 85 89 87 76 92 97 95 95 95 92 85 89 89 90 89 89 86 84 79 71 67 66 65 64 64 66 67 70 69 72 72 71 69 67
91 95 94 91 86 78 76 75 72 77 94 91 93 93 91 94 95 95 94 92 89 88 90 90 91 90 86 84 80 71 68 65 64 64 66 67 72 75 77 78 75 73 71
95 92 92 88 80 74 78 76 72 86 91 84 90 88 92 87 92 92 94 92 93 88 88 87 89 90 90 87 89 82 73 69 67 67 71 75 76 79 79 78 80 79 76
95 91 87 84 80 71 74 73 73 69 82 89 73 80 85 90 89 90 94 91 90 91 86 86 87 86 88 88 87 85 89 87 78 72 74 76 78 78 80 81 80 80 81
96 92 85 81 75 70 71 73 72 71 80 81 82 72 74 77 86 83 79 90 92 89 89 89 84 83 83 84 87 88 88 89 88 83 79 80 78 78 79 80 81 81 80
94 94 90 86 79 76 72 72 83 86 83 73 79 82 83 85 81 77 77 78 82 85 86 86 87 86 82 82 83 86 90 91 90 86 84 82 81 80 79 79 80 81 80
97 95 92 90 84 82 82 80 84 88 89 77 81 80 80 80 83 83 83 84 82 78 80 86 89 86 88 87 83 85 88 90 90 88 86 84 84 82 82 81 81 80 79
98 98 94 92 88 82 84 79 88 89 88 85 86 86 82 80 83 86 87 92 87 86 84 81 78 78 77 88 85 89 88 91 91 91 89 88 88 87 85 82 79 80 82
95 94 93 91 86 80 86 86 87 87 89 92 92 93 93 91 88 86 86 89 92 91 89 80 80 82 79 78 75 88 84 91 92 93 92 90 91 91 92 92 90 90 89
93 97 93 94 91 88 90 86 89 92 90 93 95 97 95 98 98 97 96 92 92 94 90 80 84 83 84 84 86 85 84 92 94 94 95 94 92 91 91 89 88 87 86
93 92 97 96 96 92 89 90 91 91 91 96 96 96 97 99 98 99 99 98 97 95 98 84 88 86 94 93 90 91 92 90 93 94 93 90 87 86 87 87 87 86 85
97 96 95 96 97 94 92 93 93 92 92 94 95 95 95 96 98 98 99 98 98 98 98 90 92 95 94 93 88 88 84 87 92 85 83 82 81 82 81 81 79 77 77
97 96 97 96 97 95 95 94 96 95 95 97 98 98 97 98 98 97 98 98 98 96 96 95 99 97 95 93 92 92 82 71 87 82 80 70 75 77 78 76 71 68 76
98 98 98 98 98 97 96 95 95 96 96 96 97 97 97 98 98 99 99 99 98 97 98 99 99 95 96 94 92 89 88 86 78 72 69 65 72 74 70 66 65 63 61
96 96 95 96 97 97 96 96 96 97 98 97 96 96 95 96 98 97 96 96 96 96 94 96 96 97 96 92 91 91 89 84 89 67 65 60 68 70 65 60 56 57 57
94 93 95 97 97 97 99 98 96 95 96 96 95 94 95 94 93 93 94 96 94 95 95 94 96 93 95 94 94 90 82 84 89 79 73 68 76 75 67 59 52 56 61
96 95 98 98 99 100 100 100 96 96 95 95 97 95 92 91 91 93 93 93 93 94 94 94 94 95 96 94 89 88 84 83 84 80 79 72 76 71 59 41 54 59 64
97 98 97 97 99 99 99 98 96 95 96 96 95 95 94 92 90 91 91 90 90 88 89 91 95 94 92 90 82 82 81 74 66 71 75 73 71 69 48 38 59 62 61
98 98 98 98 98 98 97 96 95 95 96 96 96 95 96 96 95 92 92 93 92 89 87 83 86 84 80 71 72 72 73 70 61 69 66 86 55 58 55 50 60 59 59
98 98 97 98 97 98 96 95 93 94 96 97 95 95 94 96 92 86 89 89 86 84 72 69 67 65 65 65 65 70 76 79 76 52 71 74 67 66 52 50 50 55 55
97 96 97 96 96 97 93 92 90 91 96 95 94 96 92 94 90 86 87 87 90 80 71 68 59 56 54 56 67 63 70 84 77 79 68 78 64 67 76 48 47 46 47

GFSMA_sfc_rhum_117.txt.gz
RH
90 93 91 92 84 78 72 74 69 69 70 68 64 63 64 62 63 56 55 80 77 71 67 66 64 63 62 64 66 64 62 61 62 61 62 62 64 64 65 65 65 62 61
91 92 95 96 92 89 69 71 68 74 64 63 65 64 62 59 59 63 54 56 81 75 71 65 64 62 63 64 65 64 62 63 62 64 66 66 65 67 67 64 64 62 60
93 91 95 96 93 91 84 74 65 69 61 60 63 62 61 64 60 62 56 54 61 82 75 73 69 65 64 64 65 65 65 64 64 64 65 66 66 67 68 66 65 65 61
88 92 94 95 94 92 83 76 62 63 62 61 63 59 57 58 62 62 57 56 53 51 71 79 76 73 69 66 66 65 65 65 66 65 66 66 67 68 69 69 66 66 65
89 92 94 95 94 91 82 70 62 61 63 61 60 59 59 58 63 57 61 62 61 55 51 79 81 79 76 71 66 65 64 66 67 67 67 68 68 68 70 70 69 68 67
93 92 95 96 94 92 80 69 64 59 60 61 55 62 63 61 61 61 60 57 59 62 59 59 59 62 82 78 70 67 64 66 65 66 67 67 67 71 72 72 73 72 70
94 97 96 96 93 93 78 71 66 69 66 62 67 69 68 69 70 63 61 58 61 62 63 61 57 54 59 84 79 71 67 64 64 65 68 69 73 76 78 78 78 77 75
94 97 96 94 91 90 84 76 68 64 64 67 62 62 76 72 68 67 64 63 67 58 61 64 62 63 59 55 63 80 73 69 68 67 71 75 77 78 80 79 80 81 81
95 98 94 92 91 83 80 74 69 66 68 69 65 56 72 68 72 67 71 64 67 65 62 71 68 63 63 59 68 73 89 87 78 72 73 77 79 81 82 83 83 82 82
95 94 94 94 88 78 77 71 67 65 70 72 66 55 55 60 60 77 67 68 66 68 73 74 65 65 64 62 70 78 87 91 88 82 77 78 80 81 80 80 82 84 83
93 92 94 94 91 79 73 70 71 68 61 63 65 61 60 59 61 58 64 67 65 63 65 66 61 63 72 79 71 71 89 92 90 87 83 80 79 81 82 82 82 81 81
96 93 95 95 92 81 77 71 73 72 71 65 60 58 55 53 55 53 56 63 60 60 60 67 67 66 66 65 68 83 88 93 93 91 88 86 83 82 80 80 78 77 78
95 96 93 95 91 86 79 75 75 74 73 70 72 65 58 52 55 59 62 73 73 64 65 63 64 65 66 72 64 85 90 95 95 93 92 90 88 88 86 84 84 84 85
95 91 92 90 91 86 77 77 76 76 75 79 76 73 71 73 70 67 70 82 82 69 68 66 77 68 74 74 91 87 89 94 94 94 92 91 90 90 89 88 88 87 86
90 97 92 91 89 89 86 77 78 78 78 83 83 84 82 84 85 87 85 85 89 91 80 70 79 85 92 92 96 89 89 93 92 90 88 87 87 87 87 88 87 86 85
92 96 94 96 92 88 85 83 81 80 82 86 87 85 90 92 92 96 96 94 94 93 95 75 92 98 92 86 90 89 88 87 86 84 83 83 82 81 81 78 77 78 77
82 84 90 97 97 94 88 88 85 84 81 88 89 89 92 94 97 98 98 98 98 97 97 90 97 96 94 94 89 86 86 90 90 76 74 77 81 77 75 73 70 69 73
92 92 93 94 94 97 92 92 92 87 84 91 92 92 94 94 94 93 96 96 96 96 96 96 98 97 96 93 91 89 81 83 85 76 66 71 72 68 64 61 60 58 58
96 97 97 98 99 95 95 93 91 91 91 91 89 90 89 93 95 96 96 97 98 99 99 99 99 96 96 93 90 86 86 87 73 72 61 58 67 65 62 57 52 54 57
98 97 96 97 99 98 96 95 94 94 95 95 94 93 93 95 95 99 99 99 98 98 97 97 97 97 95 95 91 86 84 83 87 59 56 52 73 63 57 51 46 55 60
93 94 96 98 98 99 98 98 98 98 98 98 98 96 98 97 97 98 98 98 96 96 96 96 97 94 94 91 89 83 82 83 90 68 58 42 50 43 39 36 36 55 63
94 96 98 99 99 99 100 100 98 97 96 96 97 96 95 95 94 94 92 92 94 94 96 93 94 95 96 89 84 80 77 71 68 53 49 45 52 39 33 28 48 59 61
96 98 98 98 98 99 99 98 98 96 96 96 96 95 94 91 90 88 89 88 87 86 89 90 95 91 88 82 74 69 65 55 46 51 55 49 37 40 29 25 43 56 56
98 98 98 98 97 98 97 97 95 94 96 96 95 94 95 95 91 90 90 92 91 87 84 79 83 80 73 64 58 61 62 59 42 46 47 66 36 35 32 28 42 54 55
97 97 97 97 97 98 96 95 93 94 95 97 94 93 93 94 87 83 88 90 88 87 77 75 73 75 77 78 71 70 62 61 58 35 50 58 43 37 34 33 28 42 49
97 97 97 96 96 97 95 94 90 92 95 96 95 95 90 92 82 78 81 82 87 74 64 67 73 75 67 72 75 64 66 74 60 55 46 62 43 42 58 33 33 32 32

GFSMA_sfc_rhum_120.txt.gz
RH
67 63 78 64 82 82 70 66 61 49 51 62 52 51 48 45 43 35 43 81 80 73 64 68 63 62 63 62 63 68 66 64 63 63 65 64 65 65 65 65 62 61 59
78 86 86 81 89 83 69 68 54 47 50 55 57 52 49 43 42 42 40 55 80 77 73 66 65 62 61 67 66 65 63 63 62 63 63 66 64 66 66 64 64 61 59
78 80 90 88 93 94 88 81 60 50 50 51 56 51 47 45 41 46 42 47 55 81 79 76 69 65 64 64 66 64 64 65 64 65 66 67 66 67 68 66 65 64 63
85 87 90 91 88 96 94 80 59 54 52 57 58 48 44 44 47 45 39 39 41 41 73 79 75 70 70 64 65 65 65 66 65 65 66 67 67 67 68 70 67 66 67
86 89 90 93 93 95 91 85 69 56 58 53 51 47 45 45 49 40 42 43 43 40 40 77 79 78 76 71 65 64 65 66 66 66 66 68 68 68 70 71 71 71 69
91 90 90 91 94 95 93 84 74 53 52 48 46 50 48 46 46 47 47 40 42 43 40 48 54 56 82 77 69 66 63 63 64 64 66 67 70 72 73 73 74 74 73
92 93 95 96 94 95 93 83 71 60 51 56 58 62 53 54 53 52 49 41 43 44 45 43 42 38 52 82 78 70 67 63 68 69 70 70 74 75 78 80 80 78 77
87 91 93 96 94 94 94 81 72 57 50 53 57 56 76 68 56 55 51 44 49 42 44 46 45 43 39 44 56 80 73 69 66 66 72 77 79 80 80 81 82 82 82
75 86 91 97 95 94 94 90 74 68 59 58 53 49 59 61 58 55 57 50 54 48 45 47 49 48 51 45 56 67 86 87 78 72 75 78 80 82 84 84 84 83 83
81 88 92 96 96 93 92 90 76 64 58 60 52 40 44 41 55 67 56 54 52 53 55 49 52 60 52 48 62 73 87 89 87 83 77 76 80 81 82 83 83 83 82
88 81 93 96 95 93 90 86 81 67 59 57 54 50 48 48 48 44 56 57 53 50 48 54 56 57 51 49 49 62 86 90 91 89 85 82 80 80 80 80 80 80 80
94 93 94 95 94 95 92 89 82 71 62 58 52 54 51 50 46 44 42 54 55 53 49 53 56 52 48 49 62 80 92 93 94 92 89 87 86 84 83 82 81 81 81
96 97 94 96 96 94 92 86 79 67 65 60 62 55 46 44 38 40 40 46 50 52 56 58 48 48 49 57 64 82 95 96 95 93 90 89 88 87 87 86 87 87 87
92 90 93 90 95 94 92 86 78 66 66 66 66 59 49 45 40 40 41 54 61 56 63 60 56 63 73 70 89 92 86 94 93 92 90 88 87 87 87 86 86 85 84
89 90 90 92 92 94 93 86 78 73 70 71 71 68 54 48 52 50 56 61 64 78 68 74 82 81 93 90 90 85 82 88 87 87 86 84 84 81 80 79 79 79 79
90 96 95 93 91 89 90 89 81 74 73 73 66 69 64 66 75 78 75 70 69 72 79 70 96 97 92 88 90 86 86 81 81 82 84 83 80 79 77 72 69 67 67
89 95 96 96 95 91 87 87 91 83 72 70 69 68 71 79 88 89 90 86 85 84 92 99 96 96 95 95 91 92 90 88 86 77 79 76 71 68 65 61 57 56 58
70 74 83 92 98 94 92 88 86 79 72 69 72 75 76 83 87 91 92 85 94 93 93 93 97 97 96 95 93 92 90 84 84 81 65 67 65 63 59 54 53 57 59
82 88 89 92 92 95 97 94 85 83 82 77 76 76 81 86 92 94 93 94 95 97 97 98 99 96 98 95 95 91 91 88 74 68 52 65 69 61 55 49 45 53 60
84 93 92 92 96 97 98 94 93 90 89 88 88 87 90 91 89 94 94 93 96 99 99 98 98 98 96 96 91 91 90 89 81 53 48 43 55 46 41 39 36 50 59
88 88 88 92 98 99 99 96 95 96 97 98 98 98 99 99 99 99 99 99 99 98 98 97 97 95 95 93 90 79 72 79 81 61 47 40 45 32 29 30 30 44 58
91 93 93 96 97 96 100 100 98 97 97 97 97 97 96 96 96 96 96 96 97 97 98 96 94 95 96 92 86 83 81 74 74 51 43 39 33 27 26 24 39 46 54
96 98 98 97 97 97 98 98 96 95 96 96 97 96 95 94 92 92 93 92 91 91 91 91 94 89 86 79 72 73 65 53 53 43 48 46 31 32 26 23 38 44 50
97 97 98 97 97 96 96 95 94 94 96 95 96 97 96 96 95 93 90 91 90 85 81 76 81 78 69 58 58 59 61 55 42 38 43 73 39 33 30 28 35 38 44
97 96 96 97 96 97 94 93 91 94 95 97 95 96 95 95 90 84 87 89 86 85 75 75 76 76 74 73 63 62 62 63 58 32 40 50 38 33 30 30 24 37 42
96 95 96 96 96 96 95 93 89 90 96 95 95 96 89 88 81 78 79 78 85 81 71 66 69 67 57 55 54 47 50 62 50 50 43 53 37 36 51 31 30 30 31

GFSMA_sfc_rhum_123.txt.gz
RH
67 64 71 68 55 68 78 77 81 70 57 42 42 56 48 37 36 35 47 82 79 75 67 66 65 66 66 67 69 69 64 65 63 62 64 66 67 66 65 63 62 61 59
67 60 64 74 71 81 86 92 76 79 54 47 53 61 41 37 37 41 48 60 81 77 75 69 66 64 63 63 64 63 65 63 63 63 65 65 65 66 64 64 63 61 60
73 66 67 79 80 92 90 93 77 76 58 53 62 60 41 40 37 39 44 52 62 82 80 76 72 65 64 66 66 64 64 65 63 63 64 66 65 67 67 65 64 64 64
73 76 71 73 86 90 96 97 86 85 59 48 61 57 40 39 40 41 38 43 46 47 77 80 75 71 68 65 66 64 64 65 64 65 66 67 67 67 68 70 69 66 66
80 81 81 83 84 86 96 97 98 83 55 48 60 59 45 39 42 35 39 44 48 44 48 79 79 75 74 71 65 64 64 64 66 65 66 68 68 68 70 71 72 73 72
82 82 88 87 86 92 94 97 94 79 49 50 54 55 49 57 47 43 39 36 39 45 44 54 56 60 81 77 70 66 63 65 65 64 64 66 68 71 74 74 75 75 75
80 90 90 91 92 95 92 93 92 84 61 57 66 69 63 64 57 52 42 37 40 40 43 47 47 42 58 82 79 69 66 63 67 66 67 69 75 79 80 81 81 80 81
87 84 86 94 92 96 94 95 93 86 66 69 62 65 80 78 68 52 49 44 49 37 38 42 44 41 42 50 62 80 72 67 65 68 74 78 79 80 80 81 82 83 84
75 82 88 94 95 93 96 94 94 88 69 66 64 58 71 68 72 62 60 50 51 43 40 41 43 40 39 40 56 70 86 84 79 72 75 79 81 82 83 84 85 85 85
69 69 76 89 96 94 94 94 93 90 74 68 63 53 51 47 64 77 58 61 48 45 51 43 44 45 44 46 57 75 86 89 89 84 79 77 78 80 82 82 83 83 84
68 69 80 89 97 96 94 92 95 90 75 70 60 60 53 46 54 54 66 63 60 44 43 45 46 49 55 61 53 80 90 92 93 88 85 84 82 82 81 79 78 79 80
80 75 78 89 92 96 94 94 93 90 83 71 61 54 50 49 55 50 54 57 60 51 44 46 54 52 55 53 77 96 94 95 94 91 89 87 86 83 81 82 83 85 86
86 83 84 95 96 94 95 93 93 91 81 72 66 56 50 48 44 44 46 53 55 57 58 60 53 58 54 86 76 87 94 95 94 92 90 88 88 87 87 87 86 85 85
87 87 92 92 92 95 96 93 93 92 85 86 75 62 53 51 45 43 43 58 64 64 66 65 72 77 73 73 86 88 86 94 93 92 89 88 86 84 84 83 82 82 81
80 87 89 92 92 95 96 97 95 95 94 90 88 70 61 54 52 47 44 47 56 71 68 74 82 86 85 87 87 84 82 87 86 87 85 82 80 78 76 74 72 68 65
83 89 90 91 93 93 95 96 96 94 94 90 81 69 65 56 55 52 50 52 56 63 76 74 97 96 90 88 88 87 84 84 86 80 76 73 70 66 63 59 57 58 59
73 85 92 94 95 94 93 94 95 92 90 84 73 71 70 66 63 65 70 70 79 75 78 96 93 95 95 96 94 92 90 90 90 81 75 70 67 62 57 55 56 60 61
74 88 94 93 93 93 94 92 92 91 89 84 78 74 71 67 77 78 80 83 80 78 84 94 96 96 96 95 96 95 89 80 85 78 73 70 66 58 53 49 50 57 61
68 75 79 86 96 95 94 93 90 90 89 84 78 72 67 68 80 84 84 88 87 96 93 96 98 97 98 97 98 96 93 88 75 65 52 69 59 51 46 40 46 53 59
67 67 71 72 81 92 92 94 94 94 91 89 87 79 72 77 80 86 89 93 98 99 99 98 98 98 97 97 97 94 94 91 84 49 48 45 55 52 42 33 44 45 56
72 77 84 90 90 92 92 95 93 94 94 89 93 95 94 94 98 98 96 98 98 99 99 98 98 98 97 97 95 92 87 87 77 64 53 52 54 50 43 38 34 39 50
78 83 86 95 95 92 100 100 100 99 100 98 98 98 98 98 98 98 97 98 100 99 100 96 96 95 97 96 91 90 91 92 87 51 51 54 42 40 36 28 38 42 45
92 96 97 95 96 96 98 98 97 97 97 98 98 98 98 99 97 95 96 94 94 94 96 94 96 95 95 87 80 80 75 69 61 45 54 52 39 34 29 27 33 38 41
97 97 98 96 96 94 96 95 94 94 96 99 99 100 97 98 97 95 94 94 94 90 86 79 84 82 76 68 68 70 74 68 61 46 40 78 39 34 32 28 28 35 43
97 97 97 97 96 96 94 93 90 92 95 97 97 97 96 96 94 92 91 91 89 90 81 83 84 79 70 65 64 73 82 80 52 37 42 51 36 34 33 32 28 39 43
97 97 97 96 95 95 93 90 87 89 95 95 95 96 94 94 92 86 83 83 90 88 81 72 65 64 63 58 58 55 58 62 60 50 46 54 38 36 54 35 37 39 41

GFSMA_sfc_rhum_126.txt.gz
RH
81 77 80 84 86 88 90 84 91 82 81 76 69 63 58 58 59 65 76 85 82 75 69 66 66 70 70 71 71 68 67 64 63 65 67 69 70 69 67 67 67 65 63
80 77 79 85 89 88 90 88 92 88 91 92 68 63 63 51 54 63 72 84 84 80 74 69 66 67 67 69 70 66 66 63 63 67 68 69 69 69 68 68 67 64 60
82 77 79 84 89 89 92 95 92 92 95 94 70 68 63 53 56 63 67 76 83 84 80 77 74 67 65 66 66 67 66 67 66 66 66 68 67 69 68 65 64 64 63
79 82 80 82 90 92 97 94 97 94 93 86 78 75 66 52 58 60 67 69 71 68 84 82 79 74 71 65 66 64 65 67 66 66 68 69 68 68 70 70 69 67 66
82 81 80 83 90 95 95 95 98 96 92 93 85 70 68 57 61 49 61 63 66 69 73 84 81 79 76 72 66 65 66 67 66 67 68 69 69 68 70 71 72 73 74
86 86 86 88 90 93 94 95 96 98 95 96 72 76 69 56 60 63 55 53 60 65 67 74 84 79 78 77 72 66 65 65 66 66 65 68 69 72 77 76 74 75 76
86 88 92 92 88 94 93 94 95 94 97 93 86 88 85 61 60 66 58 56 56 57 66 72 72 71 80 82 79 68 65 64 66 65 66 67 73 77 81 82 81 81 80
84 89 93 94 90 96 93 94 93 95 92 97 84 79 92 86 75 65 66 62 61 57 66 64 63 62 70 80 88 80 71 66 62 68 71 77 79 81 83 84 84 84 84
89 89 90 95 94 95 95 94 92 89 90 94 87 68 84 89 77 76 73 71 70 66 62 59 60 57 61 69 77 84 86 85 78 72 75 81 82 83 84 84 85 85 85
87 89 87 92 93 94 95 93 92 90 84 91 92 61 68 68 79 90 74 77 68 62 70 67 68 63 60 62 70 79 87 88 89 83 80 78 78 79 81 81 81 79 81
81 82 87 90 94 94 95 93 93 93 89 83 82 77 66 68 69 74 81 78 73 62 70 71 72 69 68 70 87 90 88 93 92 87 85 83 82 82 78 80 82 83 86
84 81 81 90 94 95 96 94 92 92 92 87 79 76 67 70 67 72 77 73 79 63 69 72 70 79 78 94 86 95 95 95 93 92 88 86 84 81 80 83 85 85 85
86 86 87 91 96 96 95 95 95 95 93 92 84 76 63 63 58 62 67 74 72 76 78 73 77 82 89 93 93 93 95 95 94 92 91 89 88 86 85 84 84 84 82
88 88 89 94 93 95 95 95 95 96 94 92 90 82 72 56 63 63 60 68 79 77 78 93 89 91 88 89 91 91 90 93 92 91 88 86 85 84 83 81 78 73 69
85 88 91 92 90 95 96 96 96 97 95 93 93 91 81 62 70 57 70 57 66 84 82 92 98 89 90 87 87 88 88 90 88 87 84 81 77 72 67 63 62 59 58
87 91 94 94 95 95 96 97 95 95 94 93 92 90 84 88 75 76 75 63 65 67 91 97 98 97 90 87 87 89 87 82 79 77 74 71 68 64 61 62 62 61 62
87 90 92 92 94 96 96 97 96 97 97 91 94 92 89 90 87 82 82 84 76 73 96 98 97 96 97 96 94 92 91 91 88 79 77 73 65 60 57 59 60 62 64
88 90 91 93 94 94 95 96 96 94 97 95 93 96 93 88 86 88 92 91 87 85 90 97 98 98 98 97 95 95 88 81 87 84 75 69 62 53 49 54 57 59 62
87 89 91 95 95 94 95 93 92 93 94 95 93 91 90 90 82 84 93 94 95 93 89 96 98 97 98 96 98 96 95 95 83 83 72 67 54 50 42 48 51 55 57
84 84 91 93 94 94 93 93 91 92 92 93 94 94 89 89 85 88 92 94 95 96 94 96 98 99 98 99 95 97 98 94 85 55 71 58 61 54 46 48 45 49 52
83 81 85 87 91 94 93 93 92 93 93 94 96 96 96 95 98 92 90 96 94 99 97 98 99 99 99 98 97 97 95 94 82 69 60 60 63 64 58 42 42 45 47
88 90 91 96 99 99 100 100 98 95 94 93 96 100 99 99 99 99 99 99 98 98 100 99 99 98 99 97 95 95 95 95 94 59 60 62 48 51 44 43 39 41 42
98 99 98 97 98 98 100 100 100 99 99 99 99 99 100 100 98 98 97 96 97 97 99 100 99 96 96 95 93 96 95 87 71 50 70 72 51 51 43 35 40 35 41
99 99 99 98 98 97 98 97 96 96 98 99 100 100 100 100 100 97 96 95 96 96 96 94 94 95 92 83 77 74 78 76 61 49 64 91 54 47 46 45 38 39 44
98 99 98 97 97 98 95 94 92 94 97 98 99 100 99 99 99 94 94 94 94 96 92 92 91 86 76 71 76 84 86 85 85 62 55 74 61 54 48 52 44 40 47
98 98 98 97 96 97 95 93 90 92 97 97 96 97 96 96 97 94 93 92 93 94 90 90 88 85 84 83 74 71 79 89 84 78 58 83 60 62 77 53 52 56 60

GFSMA_sfc_rhum_129.txt.gz
RH
93 92 92 95 96 98 97 99 98 93 88 84 79 78 78 72 77 81 84 86 84 76 70 71 67 71 71 71 71 70 68 68 69 70 72 72 70 70 70 70 68 66 66
93 89 90 95 96 95 96 94 95 94 95 94 94 90 74 70 71 78 85 83 86 81 74 69 68 68 70 71 71 70 67 65 67 69 72 72 72 71 71 69 67 65 63
90 88 89 93 94 96 96 97 96 95 93 94 91 89 75 66 68 75 84 85 84 86 83 78 76 71 69 71 70 69 66 68 66 69 70 70 72 71 70 69 68 66 64
88 90 90 90 93 96 96 97 95 98 97 96 97 91 78 65 70 74 80 83 91 80 85 83 78 76 75 68 65 66 66 68 68 69 70 70 70 72 72 72 69 67 66
90 88 87 92 94 96 97 97 96 92 96 98 96 96 84 66 69 70 78 82 86 90 86 86 83 82 78 72 66 65 66 66 67 67 70 70 70 70 71 71 72 73 74
92 91 92 93 94 97 97 95 93 95 94 94 90 92 92 68 66 78 77 72 76 81 84 87 83 78 83 77 72 66 65 66 67 68 70 71 71 72 74 74 74 75 76
93 94 94 94 96 95 94 94 95 96 97 95 98 99 96 79 65 71 72 74 72 75 82 83 84 80 80 82 78 68 66 66 67 67 67 70 72 78 82 79 78 79 79
94 96 94 94 94 96 95 95 94 96 97 96 94 92 96 89 72 68 64 67 74 71 77 77 76 76 83 87 90 78 70 66 64 67 69 76 78 81 83 84 82 82 83
92 92 95 94 94 94 96 95 93 91 94 98 95 87 93 93 80 81 70 64 68 72 77 72 72 72 78 86 88 86 87 84 75 70 76 80 82 84 85 83 83 82 82
95 94 94 94 94 96 96 95 93 92 88 94 98 76 70 70 79 85 79 75 64 70 78 77 73 72 75 80 84 88 89 89 87 82 82 82 82 82 81 79 77 78 81
95 96 96 97 96 97 95 94 94 92 89 85 87 87 73 67 63 66 74 77 80 63 74 75 75 78 71 78 87 88 90 91 93 88 85 82 82 81 80 78 80 85 85
95 96 95 97 96 96 96 95 94 92 92 88 86 84 70 71 70 69 70 68 71 74 67 73 76 90 94 95 88 92 93 95 94 92 89 85 82 80 83 84 84 84 84
94 94 95 96 96 94 95 92 93 93 92 92 89 91 78 73 61 65 66 72 76 87 80 94 90 91 92 96 94 95 96 96 95 93 91 89 86 85 85 85 84 82 82
88 90 91 91 94 93 92 95 95 94 94 94 90 95 88 80 67 62 64 68 84 91 89 98 92 90 93 92 94 94 93 94 93 91 90 88 86 85 82 79 76 71 70
91 93 94 96 97 96 95 96 98 98 97 96 93 93 90 80 82 68 61 62 68 89 84 99 97 90 91 90 91 90 89 90 90 88 86 81 75 71 68 65 64 63 69
89 92 95 95 97 97 97 97 97 96 96 96 97 96 91 83 87 84 71 67 63 64 87 96 99 96 89 89 90 88 85 82 80 79 77 75 73 72 71 68 64 64 68
91 93 93 95 95 96 95 98 96 95 98 97 95 95 93 87 88 97 86 75 74 69 92 99 97 96 97 97 95 90 86 86 85 81 80 76 71 69 66 64 63 65 67
92 94 94 95 94 95 96 97 97 96 98 97 95 98 93 92 89 90 98 82 81 85 91 97 97 99 97 96 95 94 88 84 84 76 75 68 62 60 60 58 60 63 59
94 94 94 95 94 95 97 97 95 96 97 94 92 95 95 93 91 94 98 93 87 88 92 97 98 98 99 97 97 95 95 94 86 80 72 64 54 50 54 55 58 57 58
95 94 94 94 93 94 94 94 95 96 94 96 91 92 90 92 90 95 98 98 93 95 96 97 98 98 98 99 97 97 98 91 86 69 76 69 60 51 48 50 54 53 58
95 95 95 95 94 94 94 96 95 96 96 95 96 92 92 94 98 98 96 98 96 95 97 98 98 99 98 98 98 97 95 94 84 80 71 69 73 77 71 50 48 48 46
96 96 97 97 97 97 100 100 98 96 96 96 98 99 95 99 100 100 100 100 95 94 97 98 98 98 98 98 98 96 95 95 95 66 74 69 53 58 52 52 46 43 40
96 98 99 99 99 99 100 100 100 98 98 98 98 100 100 100 99 100 99 99 99 98 93 99 100 99 98 95 94 97 96 95 90 60 74 67 55 56 46 41 44 39 42
99 99 99 99 99 98 99 99 99 99 99 100 100 100 100 100 100 100 100 99 98 98 100 98 98 97 95 95 92 93 92 77 60 56 78 91 62 53 50 53 40 41 45
99 99 99 99 98 99 98 98 97 98 98 99 100 100 100 100 99 97 98 96 96 98 97 95 95 94 94 94 90 85 87 86 94 63 57 83 63 56 52 57 48 50 48
98 98 99 98 98 98 96 95 94 95 98 97 98 98 98 99 100 94 95 94 94 97 95 95 95 95 91 90 88 80 82 91 92 82 58 84 61 72 82 61 59 61 67

GFSMA_sfc_rhum_132.txt.gz
RH
94 94 96 96 97 93 94 92 97 98 97 92 84 87 75 82 90 90 95 89 87 81 74 70 70 74 74 74 73 73 71 69 69 72 74 72 72 72 72 70 70 68 67
92 96 96 97 98 97 95 95 98 96 98 95 96 93 87 78 85 92 91 89 88 84 78 70 73 70 71 73 74 72 70 70 71 72 73 72 71 71 70 68 67 65 64
97 96 95 97 97 98 98 98 98 97 98 96 92 96 81 75 83 88 90 89 85 86 84 76 75 72 71 71 73 70 70 73 71 73 74 74 73 72 72 70 68 67 65
95 95 94 96 97 98 98 98 98 98 97 96 97 94 87 75 78 85 88 90 90 80 85 82 79 76 76 72 71 69 68 68 68 72 73 73 73 72 71 70 69 68 67
93 93 93 94 96 97 97 97 98 93 94 97 96 95 92 79 77 79 88 93 94 95 94 87 84 83 80 76 69 66 66 68 68 70 72 72 73 74 74 74 75 75 75
94 94 94 95 94 96 97 98 96 94 91 94 92 91 97 83 77 82 87 83 91 92 93 90 86 83 84 77 72 67 66 66 66 67 69 72 72 73 74 75 76 76 76
94 94 95 96 94 95 95 96 97 95 97 96 97 99 98 93 82 80 82 85 86 88 91 90 96 88 82 82 77 69 65 66 65 66 67 72 73 76 78 78 78 78 79
96 95 95 96 95 95 97 96 93 95 97 95 94 96 99 99 95 82 80 79 84 83 85 85 86 87 88 82 87 77 68 63 62 65 68 76 79 81 81 80 81 82 83
97 94 94 96 95 93 96 96 94 92 95 97 92 94 98 95 93 88 80 80 84 85 83 83 84 81 84 91 88 85 84 80 71 70 73 79 81 83 84 82 84 82 81
96 97 95 95 95 94 95 95 94 92 91 97 95 79 80 80 86 96 83 80 81 82 86 85 84 80 79 88 89 91 89 89 85 78 77 81 83 84 84 81 79 75 82
91 96 97 96 96 95 94 95 96 94 91 90 90 89 78 82 62 73 84 93 80 77 83 84 82 83 81 85 91 91 91 91 92 90 88 84 83 82 80 80 80 84 84
95 95 97 96 95 96 97 96 95 94 95 91 89 85 80 75 75 67 71 77 80 78 79 83 85 87 89 93 90 91 91 94 96 93 90 87 83 80 80 84 84 84 84
99 98 97 98 98 97 96 95 95 96 94 94 91 89 84 73 66 61 63 74 83 88 96 95 95 99 95 99 98 96 96 97 96 94 93 91 89 88 86 85 84 84 83
93 93 97 97 96 97 97 96 96 95 94 95 92 90 90 83 84 69 63 68 78 93 98 99 93 94 94 94 97 96 96 97 95 94 92 92 90 86 83 81 79 78 76
90 94 94 96 97 97 97 97 96 96 96 95 94 93 91 90 91 85 64 62 65 82 91 98 97 94 94 94 94 92 92 94 93 92 89 86 81 78 75 71 73 77 75
95 95 96 95 96 97 96 96 95 94 95 96 96 94 92 92 94 92 84 76 62 64 80 96 99 97 93 91 91 91 89 86 86 84 83 81 78 77 75 74 73 72 68
97 96 96 97 98 98 98 97 97 97 98 97 97 97 96 91 94 94 86 78 75 68 83 99 97 97 98 97 94 90 87 87 86 82 82 81 79 78 74 72 75 68 61
97 95 94 95 96 98 98 98 98 98 98 97 95 96 96 96 96 92 91 86 84 78 91 97 97 98 98 97 95 95 90 85 86 79 80 79 77 72 68 69 70 62 60
94 97 96 95 95 96 96 96 94 94 95 94 95 97 96 94 97 96 95 94 90 91 93 97 98 98 98 97 97 96 97 96 86 86 86 79 73 66 66 63 62 60 61
93 97 96 95 94 95 94 94 96 96 94 95 96 95 94 97 95 94 97 96 96 95 96 97 98 98 97 98 95 96 98 96 95 85 84 80 70 65 60 60 58 60 61
90 94 97 95 94 94 95 94 94 96 97 97 98 95 94 96 99 98 94 98 97 96 96 97 98 98 98 98 97 97 96 96 96 95 96 94 89 72 65 58 53 54 49
88 96 98 97 97 96 100 100 99 98 98 98 98 98 97 99 99 100 100 100 95 95 97 98 98 98 98 96 98 97 96 96 98 94 93 90 75 82 67 58 51 49 45
91 92 98 97 98 98 100 100 100 98 98 98 98 100 100 100 100 100 100 100 99 94 91 94 99 99 99 96 94 98 96 92 94 94 91 78 63 60 52 46 50 45 47
94 97 99 99 99 100 100 100 100 100 99 100 100 100 100 100 100 100 100 100 100 100 100 99 95 99 97 94 91 92 95 96 94 94 95 90 70 60 54 55 46 45 46
94 98 99 99 99 99 99 99 99 99 100 100 100 100 100 100 99 99 100 100 99 99 98 97 96 95 94 94 93 93 96 93 95 91 85 92 77 56 55 55 54 52 54
98 99 99 99 99 99 98 98 98 98 98 98 99 100 99 100 99 98 100 98 97 98 97 98 98 98 96 97 96 90 92 94 93 93 90 90 54 67 76 58 60 63 66

GFSMA_sfc_rhum_135.txt.gz
RH
95 98 98 99 99 99 98 92 93 99 97 96 94 88 84 91 93 98 96 93 91 84 77 72 75 76 76 75 77 76 72 70 70 71 70 67 71 71 71 71 70 68 66
94 93 98 98 99 95 96 92 93 99 98 97 96 92 89 89 94 98 97 94 90 87 81 74 71 73 72 74 75 73 68 67 73 74 73 73 73 73 72 71 70 67 65
93 93 96 98 98 92 92 93 98 98 99 96 94 93 89 84 95 96 96 98 93 90 86 79 78 75 75 72 73 73 71 73 74 74 73 72 72 71 70 69 67 65 64
92 95 94 94 96 97 96 97 99 99 99 98 99 98 90 85 90 94 95 96 97 90 88 82 82 79 78 75 72 70 71 74 74 75 74 72 72 72 72 71 69 68 66
91 91 93 96 96 96 97 97 99 98 99 99 96 98 94 89 94 88 94 96 96 95 93 86 83 84 81 77 70 70 69 72 74 74 74 73 73 72 72 71 70 71 72
91 95 97 97 98 97 98 98 98 98 97 95 92 95 98 95 97 97 92 89 96 96 95 93 90 84 85 80 76 72 70 67 71 71 71 72 73 74 75 75 75 76 77
93 96 96 97 96 96 96 96 98 97 99 96 99 99 100 96 96 97 91 89 94 94 96 95 98 92 83 82 78 69 66 68 68 66 68 71 73 74 75 76 77 78 79
95 94 95 96 96 97 97 98 95 97 97 95 95 94 99 98 98 94 87 86 94 90 92 93 93 93 90 84 81 78 69 65 63 62 64 74 76 76 78 79 80 81 82
96 94 94 95 96 96 98 97 95 93 96 97 92 93 99 98 96 96 93 88 86 90 88 89 90 87 90 94 87 83 85 79 71 68 71 78 81 80 80 79 81 85 83
98 96 96 95 96 96 95 95 95 93 91 96 95 87 84 84 90 99 96 96 92 87 90 91 92 87 88 89 88 91 89 89 81 78 77 80 80 80 81 85 84 81 82
96 96 97 96 96 95 94 95 97 95 92 92 92 89 93 85 82 86 93 96 90 85 84 88 89 88 86 88 90 89 91 91 91 86 83 82 82 85 86 83 79 82 84
98 96 94 94 94 95 95 96 94 94 95 92 92 88 87 83 83 86 84 84 89 88 87 87 92 88 86 86 87 92 92 92 93 95 93 91 88 84 82 81 83 85 84
98 99 97 97 96 94 93 94 95 95 95 95 94 92 88 80 69 69 69 81 92 97 99 98 98 95 94 97 91 92 93 94 97 95 94 92 89 88 88 85 84 83 83
98 97 98 98 96 95 95 96 97 96 96 96 94 94 93 88 83 73 68 80 93 98 99 98 93 96 99 99 98 96 97 98 98 97 96 95 93 91 90 86 83 82 79
96 96 97 97 97 98 97 97 97 98 98 96 96 94 93 90 90 88 77 78 84 94 97 99 98 96 98 98 98 98 99 98 97 96 94 91 89 86 83 82 81 80 77
98 97 97 98 98 97 98 98 98 97 98 98 96 95 93 90 92 90 90 89 83 81 90 98 99 98 96 96 96 96 96 94 93 91 89 87 85 82 82 83 80 75 67
96 98 96 97 97 98 98 98 98 97 98 96 96 96 95 91 93 96 94 92 90 88 89 99 98 98 98 98 97 93 91 91 91 89 89 88 88 87 86 80 75 69 65
94 96 98 97 97 96 97 97 98 97 97 97 95 96 97 96 96 96 96 96 94 92 94 97 97 99 98 98 96 96 91 87 90 88 87 86 85 86 89 86 70 67 67
90 92 97 98 98 98 98 97 96 97 97 96 96 97 96 97 98 97 97 95 92 92 93 97 98 98 99 98 98 97 97 95 89 88 86 84 83 87 87 83 71 66 69
88 86 93 96 96 97 98 98 98 98 97 97 96 96 94 93 93 95 98 95 93 97 97 97 98 98 97 98 97 97 98 97 98 92 92 92 88 83 78 74 69 72 70
85 85 88 95 97 97 97 97 96 96 96 96 95 95 95 96 100 97 96 96 96 96 97 98 98 98 98 98 97 96 96 97 98 96 97 98 97 95 89 83 74 70 59
89 89 90 89 98 97 100 100 98 96 96 97 97 98 96 100 100 100 100 100 97 95 96 97 98 98 99 98 97 96 96 96 98 97 94 98 92 90 87 84 72 61 53
90 92 92 92 96 97 100 100 100 95 96 96 97 99 100 100 100 100 100 100 100 96 88 89 96 97 99 96 94 97 96 95 96 96 94 96 93 91 85 56 59 53 50
91 94 94 97 98 98 100 100 100 99 100 100 100 100 100 100 100 100 100 100 100 100 99 94 90 93 91 91 90 90 94 97 97 97 94 95 88 85 65 62 56 50 50
92 94 96 98 99 99 100 100 100 99 100 100 100 100 100 100 100 100 100 100 100 100 100 100 96 94 93 91 93 94 96 94 97 96 96 94 90 79 64 61 55 51 52
95 98 99 98 99 99 99 100 99 99 100 100 100 100 99 100 100 100 100 100 100 99 100 100 100 99 98 99 95 94 92 93 94 95 94 93 92 93 94 57 59 62 62

GFSMA_sfc_rhum_138.txt.gz
RH
95 99 98 99 98 99 98 95 98 97 98 97 97 90 94 93 93 98 99 93 89 84 79 74 75 78 77 76 76 72 70 73 69 68 68 68 67 70 71 71 71 68 69
91 93 99 99 99 99 99 99 96 96 99 98 97 91 91 91 91 96 98 96 92 89 85 76 73 75 75 69 76 73 72 70 69 70 66 68 72 72 73 72 71 69 67
95 93 94 99 98 99 98 98 97 96 99 98 96 94 92 90 95 96 98 97 96 95 88 82 78 78 74 72 74 75 70 70 73 70 71 72 72 72 72 71 68 66 65
92 95 93 93 98 96 97 96 95 98 99 99 99 97 91 91 94 96 96 96 96 94 90 86 83 82 80 72 72 74 72 73 75 76 74 73 72 71 70 69 67 66 66
90 94 93 92 95 95 96 95 96 98 98 99 99 98 96 92 96 94 96 97 96 93 91 88 88 85 83 79 70 68 68 73 75 75 74 72 71 71 71 70 69 68 68
91 96 96 95 94 96 97 96 96 97 98 98 98 98 97 98 98 98 97 94 96 93 91 88 87 85 86 81 77 71 71 71 75 75 74 71 72 72 72 72 72 74 77
90 93 95 96 96 96 94 94 96 98 99 98 98 99 98 98 99 99 98 94 94 93 93 91 91 89 81 83 79 74 71 70 71 69 72 72 72 75 76 76 76 78 79
92 92 93 95 95 95 97 98 98 99 98 96 97 95 99 99 98 97 97 96 95 94 94 93 93 92 89 82 80 81 74 72 70 68 70 73 74 75 76 77 78 79 81
94 94 93 94 95 96 96 98 98 96 97 97 90 94 98 96 98 98 97 93 93 93 92 93 92 91 90 88 82 82 85 80 72 67 70 76 77 77 78 79 80 81 82
94 93 93 94 94 95 97 97 97 96 94 97 94 82 85 91 96 99 98 96 93 90 91 91 91 90 89 85 84 87 89 87 79 74 72 76 77 79 80 80 81 85 82
98 92 94 93 95 95 95 96 97 96 94 93 90 92 93 87 87 95 96 98 96 92 86 90 89 89 88 87 86 86 89 91 88 82 79 79 81 83 83 82 85 82 85
97 95 93 91 94 94 94 95 94 94 94 92 92 85 84 87 87 83 91 93 94 92 90 87 90 88 87 87 86 90 91 90 91 88 88 86 85 84 85 85 83 84 84
95 93 93 94 94 93 92 92 94 96 95 95 94 91 85 80 80 74 74 88 95 97 98 95 91 88 88 90 87 91 92 91 92 94 95 93 92 90 89 86 84 84 83
98 97 98 95 93 92 92 93 95 95 94 96 94 94 91 89 82 73 71 89 96 98 99 98 98 97 92 89 88 95 89 93 95 97 96 95 94 94 93 90 87 85 83
98 98 99 98 96 96 94 96 95 95 95 94 96 95 94 92 92 90 79 77 80 98 97 99 98 95 96 96 96 95 94 96 98 98 98 97 96 94 92 90 88 83 80
98 98 98 98 98 95 95 96 96 94 96 96 96 95 95 94 94 92 90 88 81 83 90 96 99 99 98 99 98 97 98 98 99 98 96 94 92 91 90 88 86 80 74
93 95 98 98 98 96 94 97 97 97 97 97 97 97 96 94 95 94 92 89 89 85 88 99 98 99 99 98 99 98 97 98 96 94 92 91 91 92 90 87 81 78 75
87 91 91 98 96 97 97 98 98 98 98 98 98 98 97 95 94 94 95 94 92 89 91 98 98 99 98 98 98 98 96 92 94 92 91 91 93 92 91 89 86 81 76
86 86 88 90 97 98 98 98 98 98 98 96 96 97 95 95 96 96 97 98 96 94 95 95 98 99 99 98 98 98 98 98 93 92 92 93 92 90 87 85 86 84 78
88 87 87 87 89 96 98 97 97 97 97 96 95 95 94 94 94 97 98 98 97 98 98 96 95 97 96 98 97 97 98 98 98 91 91 92 92 90 89 88 86 83 72
88 89 88 90 88 89 97 98 97 98 98 98 97 96 95 97 100 98 96 95 96 98 98 97 98 98 99 98 97 97 97 98 99 97 98 98 97 96 95 94 90 83 76
84 87 87 90 92 87 100 100 100 98 98 98 98 98 96 100 100 100 100 100 98 97 97 96 96 97 99 96 98 98 97 98 98 97 96 98 93 96 96 97 93 85 77
88 89 90 91 93 94 100 100 100 97 98 98 96 97 100 100 100 100 100 100 100 98 90 88 94 94 98 94 95 100 97 95 96 97 93 98 95 96 95 89 85 81 67
90 92 92 92 96 95 100 100 100 98 98 98 99 100 100 100 100 100 100 100 100 100 97 93 88 88 88 92 91 88 94 98 97 96 96 96 96 96 96 90 89 78 58
91 92 93 97 98 97 97 99 99 98 100 100 100 100 100 100 100 100 100 100 100 100 100 100 99 93 93 91 91 97 98 95 98 96 98 96 96 94 93 94 96 93 77
91 92 97 97 96 97 95 97 99 99 100 100 100 100 99 100 100 100 100 100 100 100 100 100 100 100 98 97 95 89 91 94 95 97 96 95 94 93 96 94 95 97 79

GFSMA_sfc_rhum_141.txt.gz
RH
89 80 75 68 66 67 69 68 71 68 71 71 71 66 64 77 85 93 95 96 91 84 79 75 76 78 80 78 78 72 68 69 66 66 67 68 65 70 71 72 71 68 68
85 87 78 75 75 67 67 69 69 77 76 75 74 69 67 76 88 89 93 96 97 90 84 77 74 76 76 74 76 73 71 70 67 69 69 67 67 71 73 72 70 69 66
84 85 82 75 71 70 80 77 78 88 79 75 73 70 64 65 83 85 88 94 96 96 90 83 80 80 75 70 72 71 72 75 69 70 69 65 70 73 74 72 71 68 67
85 88 84 79 75 78 79 82 80 88 85 76 74 70 62 62 67 76 90 82 73 58 91 89 85 83 79 73 72 68 66 68 74 70 70 70 71 72 72 71 68 66 65
89 82 80 78 85 77 79 80 84 86 90 84 75 73 66 60 72 84 75 82 73 66 68 86 88 87 84 78 72 68 68 66 73 73 74 74 71 72 70 69 68 67 67
81 82 86 88 90 91 90 85 83 89 87 87 77 77 74 70 77 81 80 94 79 72 68 65 63 64 86 80 77 70 68 66 73 75 75 73 70 71 71 71 70 69 72
80 85 88 90 91 91 94 92 93 95 98 87 91 93 90 78 82 80 85 96 93 77 74 66 59 53 59 82 79 74 70 68 71 73 74 71 71 73 73 72 73 76 78
85 85 86 90 91 92 94 96 95 98 96 95 94 95 99 96 90 81 80 82 79 88 79 68 64 61 51 48 67 79 73 70 70 72 75 75 77 75 76 76 76 78 80
89 88 85 89 91 93 95 95 95 96 97 97 89 81 96 93 92 88 92 84 82 84 74 72 68 63 60 52 63 72 86 82 76 72 75 78 78 75 76 76 78 80 81
93 93 92 91 94 94 94 94 95 94 94 97 96 76 64 60 63 92 91 89 90 82 82 66 65 65 63 58 68 70 87 89 84 79 77 76 75 75 77 78 80 82 83
84 92 93 93 95 96 94 95 98 96 94 90 90 90 72 71 65 64 83 91 90 82 72 70 64 66 66 63 60 69 88 90 88 82 78 78 78 80 80 80 81 83 85
89 90 85 90 94 94 94 95 94 95 96 93 91 80 74 72 69 61 63 75 84 85 86 73 77 72 78 68 69 80 90 89 90 86 80 80 82 83 84 83 82 85 85
94 93 94 96 94 92 92 93 94 94 95 95 93 88 78 74 63 60 67 60 80 80 94 90 84 85 81 76 72 85 91 90 91 88 88 87 88 88 86 86 87 84 84
85 84 90 91 91 91 91 90 94 93 94 95 93 93 89 80 74 60 68 68 83 90 96 95 91 84 90 83 79 94 72 92 91 91 90 90 90 91 92 92 90 87 86
88 86 86 90 88 93 91 90 93 93 94 94 95 94 92 87 87 81 74 72 74 83 94 95 90 86 80 94 93 86 77 91 92 92 94 97 95 95 96 95 92 89 86
79 85 85 90 90 94 94 93 93 90 92 95 95 94 95 91 91 90 86 82 75 78 76 74 87 91 90 97 94 91 86 90 94 95 97 98 98 97 96 93 90 87 83
72 71 79 88 90 92 94 94 94 91 92 92 95 94 95 94 95 94 91 85 85 82 84 93 93 95 97 97 99 97 95 84 86 98 99 99 98 96 94 91 88 85 81
74 74 72 78 85 90 92 98 95 92 94 94 92 93 95 95 95 94 94 92 88 79 82 94 95 99 98 98 98 98 99 96 89 99 98 97 96 94 92 89 85 83 82
75 76 76 77 81 84 91 96 94 94 95 94 95 94 96 96 97 96 96 94 88 88 88 96 98 97 99 98 99 99 99 98 97 96 96 96 94 92 90 89 88 88 88
76 75 77 78 80 79 80 90 97 98 97 97 96 95 95 96 94 94 94 90 94 96 95 98 97 97 95 100 98 98 99 99 98 96 96 95 93 92 90 89 88 85 82
76 75 78 79 80 80 76 90 96 97 98 98 97 96 95 96 99 96 91 92 96 98 99 98 99 100 99 99 98 97 97 98 99 98 98 98 96 96 94 90 88 86 82
80 79 79 80 83 79 93 97 98 96 98 98 98 97 96 99 99 100 100 100 97 98 98 98 98 99 100 96 97 99 98 99 99 100 98 98 95 98 94 90 87 85 85
81 81 82 82 86 86 94 97 98 94 97 98 98 98 98 99 100 98 100 100 100 100 98 92 96 96 99 94 94 100 99 96 96 98 95 98 98 98 94 92 88 86 88
83 83 84 85 92 91 96 95 95 90 98 98 99 99 99 100 100 100 100 100 100 100 99 94 88 87 85 87 89 87 95 100 99 98 99 97 97 96 96 94 88 88 91
83 83 83 86 95 91 93 94 94 91 98 100 100 100 100 100 100 100 100 100 100 100 100 98 96 93 91 87 87 98 99 96 98 97 98 94 97 96 95 96 95 90 91
84 81 84 89 93 90 90 94 92 93 99 100 100 100 100 100 100 100 100 100 100 100 100 100 100 100 97 94 93 87 91 95 93 98 97 95 94 94 96 95 95 96 97

GFSMA_sfc_rhum_144.txt.gz
RH
66 57 54 48 45 43 47 48 46 49 54 51 48 50 49 47 55 88 93 94 87 84 80 76 77 78 79 78 78 74 71 70 69 66 67 68 69 66 71 71 70 69 68
65 64 56 52 47 43 43 46 47 48 50 50 53 52 48 46 54 66 88 92 93 90 82 79 75 76 77 76 79 75 73 70 67 67 67 68 65 72 73 72 70 68 66
73 72 57 56 50 49 53 51 54 51 48 48 53 52 46 49 52 66 67 86 91 98 89 80 80 80 77 74 74 74 75 76 72 68 69 66 70 73 75 73 70 69 68
79 80 68 56 54 55 53 53 54 61 55 48 50 46 44 43 50 54 49 59 82 83 93 86 83 84 82 75 71 69 72 75 72 71 70 69 70 74 75 73 72 69 67
84 77 64 72 70 63 59 57 56 58 61 49 47 48 46 44 48 42 50 66 62 80 80 86 90 89 86 79 73 69 69 70 72 72 70 72 72 74 73 72 69 67 66
82 82 77 69 79 73 72 66 67 60 59 53 44 50 53 50 50 56 54 47 64 74 54 58 59 64 89 83 79 71 66 64 68 72 70 72 72 72 72 70 68 67 67
76 84 84 78 79 76 74 81 82 86 71 72 62 69 73 62 59 53 53 52 63 83 63 58 61 52 62 84 81 75 66 66 67 72 74 75 74 75 72 71 70 69 71
72 76 81 81 79 79 81 91 91 93 88 83 82 84 93 87 72 61 58 57 61 75 60 62 61 57 56 52 60 80 74 69 67 73 77 79 77 77 74 73 71 72 77
67 75 71 80 88 90 90 93 94 93 96 96 78 65 94 83 76 61 74 65 66 65 60 65 74 56 48 44 56 71 86 82 75 76 80 81 78 78 75 74 74 75 80
70 78 78 78 94 96 94 93 94 94 94 94 95 76 65 56 64 79 75 79 75 71 65 77 83 71 52 45 55 63 84 88 85 79 81 83 80 78 76 76 75 78 81
76 76 79 78 84 89 95 90 93 95 94 92 95 88 76 67 56 46 55 73 83 77 66 68 80 77 57 50 47 58 84 87 89 85 81 83 80 80 80 78 76 80 81
89 84 77 74 75 84 89 92 91 94 96 94 93 89 77 77 64 54 52 57 66 69 62 65 63 66 60 53 55 71 86 89 90 89 87 84 82 81 82 81 79 80 81
81 84 87 88 75 64 77 82 89 93 95 95 92 91 82 69 61 52 55 68 60 54 79 67 59 59 61 61 55 78 88 89 90 90 88 87 85 84 84 84 84 83 83
84 90 90 86 91 81 81 87 89 94 94 95 92 90 88 84 73 69 57 67 73 76 81 80 74 61 62 67 75 88 77 91 90 91 89 87 88 89 90 90 88 88 88
83 91 90 91 89 92 93 91 93 94 93 95 95 93 90 85 87 78 64 62 67 72 82 75 75 71 67 68 83 86 83 91 91 91 91 89 90 91 93 92 92 94 90
72 77 84 86 86 85 91 92 94 92 93 92 93 93 92 88 88 87 84 73 61 60 62 55 60 63 72 75 79 82 83 90 93 92 92 92 91 91 94 95 96 94 90
61 64 65 68 78 84 78 95 96 93 94 92 91 91 93 91 93 92 92 87 81 71 79 78 67 64 80 86 90 89 88 90 89 93 93 93 96 97 98 98 96 94 90
61 62 62 60 66 72 80 80 87 94 94 93 92 94 93 93 94 94 94 92 86 78 82 79 87 89 85 92 94 98 97 95 90 97 95 96 98 100 99 97 96 92 89
62 59 60 64 63 67 73 74 82 93 96 95 89 91 90 93 96 96 95 94 90 83 82 83 93 86 90 95 98 98 98 99 99 98 99 99 99 99 97 95 93 91 88
64 61 62 61 65 62 64 68 80 90 94 95 93 92 89 89 93 94 95 95 94 94 92 91 94 92 95 97 94 97 99 99 99 99 99 99 98 97 94 92 90 89 90
64 63 63 63 65 64 58 81 83 83 88 94 97 96 95 94 99 96 95 96 96 95 94 96 96 100 100 100 98 96 99 99 99 100 100 99 98 97 95 91 90 92 91
64 65 64 66 71 64 92 96 95 87 82 87 96 95 95 100 100 100 100 100 96 95 96 98 99 99 99 99 99 100 100 100 100 100 99 99 96 98 97 94 91 91 89
67 68 69 70 73 75 93 94 94 82 82 83 88 98 99 99 100 98 100 100 100 100 97 90 97 97 98 94 94 100 100 98 97 99 98 100 100 99 99 98 96 92 87
71 70 73 70 75 75 92 93 93 79 84 84 90 98 99 100 100 99 100 100 100 99 99 95 89 85 81 85 89 88 96 100 100 100 100 98 99 98 99 99 98 95 95
68 72 66 72 75 79 89 93 89 82 86 93 97 100 100 100 100 100 100 100 100 100 100 100 98 96 94 91 90 98 100 100 100 99 100 96 98 98 98 98 99 97 97
62 65 69 73 77 75 83 92 87 82 93 93 100 100 100 100 100 100 99 100 100 100 100 100 100 100 98 97 93 88 95 99 97 99 98 95 95 95 98 97 97 98 97